2016 Cux-Wetter.de -Die Nutzung der Wetterdaten nur mit ausdrcklicher Genehmigung
Wetterdaten: Dienstag, 27.06.2017
Datum Zeit Temp. A. Feuchte A. Luftdruck Regen Wind Richtung Richtung Sonnenschein Solar Taupunkt Windchill Windben
27.06.2017 00:00 13,9 C 81 % 1012,7 hPa 0,0 l/m 5,3 km/h (1 Bft) W-NW 294 0 min 0 W/m 10,7 C 13,9 C 11,3 km/h (2 Bft)
27.06.2017 00:03 13,8 C 81 % 1012,7 hPa 0,0 l/m 6,3 km/h (2 Bft) W 265 0 min 0 W/m 10,6 C 13,8 C 14,5 km/h (3 Bft)
27.06.2017 00:06 13,8 C 81 % 1012,7 hPa 0,0 l/m 2,8 km/h (1 Bft) W-NW 285 0 min 0 W/m 10,6 C 13,8 C 9,7 km/h (2 Bft)
27.06.2017 00:09 13,7 C 81 % 1012,7 hPa 0,0 l/m 2,4 km/h (1 Bft) W-NW 285 0 min 0 W/m 10,5 C 13,7 C 6,4 km/h (2 Bft)
27.06.2017 00:12 13,6 C 80 % 1012,8 hPa 0,0 l/m 2,6 km/h (1 Bft) W-NW 282 0 min 0 W/m 10,2 C 13,6 C 6,4 km/h (2 Bft)
27.06.2017 00:15 13,6 C 80 % 1012,8 hPa 0,0 l/m 1,8 km/h (1 Bft) W 279 0 min 0 W/m 10,2 C 13,6 C 6,4 km/h (2 Bft)
27.06.2017 00:18 13,6 C 81 % 1012,9 hPa 0,0 l/m 4,2 km/h (1 Bft) W 277 0 min 0 W/m 10,4 C 13,6 C 9,7 km/h (2 Bft)
27.06.2017 00:21 13,6 C 81 % 1013,0 hPa 0,0 l/m 2,7 km/h (1 Bft) W 277 0 min 0 W/m 10,4 C 13,6 C 6,4 km/h (2 Bft)
27.06.2017 00:24 13,6 C 80 % 1013,0 hPa 0,0 l/m 3,8 km/h (1 Bft) W 274 0 min 0 W/m 10,2 C 13,6 C 6,4 km/h (2 Bft)
27.06.2017 00:27 13,6 C 80 % 1013,0 hPa 0,0 l/m 4,4 km/h (1 Bft) W 265 0 min 0 W/m 10,2 C 13,6 C 9,7 km/h (2 Bft)
27.06.2017 00:30 13,6 C 80 % 1013,0 hPa 0,0 l/m 4,5 km/h (1 Bft) W 278 0 min 0 W/m 10,2 C 13,6 C 9,7 km/h (2 Bft)
27.06.2017 00:33 13,6 C 80 % 1012,9 hPa 0,0 l/m 2,9 km/h (1 Bft) W 271 0 min 0 W/m 10,2 C 13,6 C 9,7 km/h (2 Bft)
27.06.2017 00:36 13,6 C 80 % 1012,9 hPa 0,0 l/m 3,6 km/h (1 Bft) W 263 0 min 0 W/m 10,2 C 13,6 C 9,7 km/h (2 Bft)
27.06.2017 00:39 13,5 C 80 % 1012,9 hPa 0,0 l/m 4,4 km/h (1 Bft) W-NW 282 0 min 0 W/m 10,1 C 13,5 C 9,7 km/h (2 Bft)
27.06.2017 00:42 13,4 C 80 % 1012,9 hPa 0,0 l/m 2,9 km/h (1 Bft) NW 323 0 min 0 W/m 10,0 C 13,4 C 6,4 km/h (2 Bft)
27.06.2017 00:45 13,4 C 80 % 1012,9 hPa 0,0 l/m 3,8 km/h (1 Bft) W 270 0 min 0 W/m 10,0 C 13,4 C 6,4 km/h (2 Bft)
27.06.2017 00:48 13,4 C 80 % 1013,0 hPa 0,0 l/m 3,9 km/h (1 Bft) W-NW 288 0 min 0 W/m 10,0 C 13,4 C 8,0 km/h (2 Bft)
27.06.2017 00:51 13,4 C 80 % 1012,9 hPa 0,0 l/m 3,4 km/h (1 Bft) W-NW 288 0 min 0 W/m 10,0 C 13,4 C 6,4 km/h (2 Bft)
27.06.2017 00:54 13,5 C 80 % 1012,9 hPa 0,0 l/m 3,2 km/h (1 Bft) NW 305 0 min 0 W/m 10,1 C 13,5 C 9,7 km/h (2 Bft)
27.06.2017 00:57 13,5 C 80 % 1012,9 hPa 0,0 l/m 2,4 km/h (1 Bft) W-NW 298 0 min 0 W/m 10,1 C 13,5 C 6,4 km/h (2 Bft)
27.06.2017 01:00 13,4 C 79 % 1012,9 hPa 0,0 l/m 4,9 km/h (1 Bft) W-NW 293 0 min 0 W/m 9,8 C 13,4 C 11,3 km/h (2 Bft)
27.06.2017 01:03 13,4 C 79 % 1012,9 hPa 0,0 l/m 3,9 km/h (1 Bft) W 267 0 min 0 W/m 9,8 C 13,4 C 14,5 km/h (3 Bft)
27.06.2017 01:06 13,4 C 79 % 1013,0 hPa 0,0 l/m 3,9 km/h (1 Bft) W 280 0 min 0 W/m 9,8 C 13,4 C 11,3 km/h (2 Bft)
27.06.2017 01:09 13,4 C 79 % 1013,0 hPa 0,0 l/m 5,1 km/h (1 Bft) W 278 0 min 0 W/m 9,8 C 13,4 C 12,9 km/h (3 Bft)
27.06.2017 01:12 13,5 C 78 % 1012,9 hPa 0,0 l/m 4,0 km/h (1 Bft) W 271 0 min 0 W/m 9,7 C 13,5 C 9,7 km/h (2 Bft)
27.06.2017 01:15 13,5 C 78 % 1012,9 hPa 0,0 l/m 5,6 km/h (2 Bft) W 279 0 min 0 W/m 9,7 C 13,5 C 12,9 km/h (3 Bft)
27.06.2017 01:18 13,6 C 78 % 1013,0 hPa 0,0 l/m 5,2 km/h (1 Bft) W 275 0 min 0 W/m 9,8 C 13,6 C 14,5 km/h (3 Bft)
27.06.2017 01:21 13,5 C 77 % 1013,0 hPa 0,0 l/m 5,6 km/h (2 Bft) W-NW 283 0 min 0 W/m 9,5 C 13,5 C 9,7 km/h (2 Bft)
27.06.2017 01:24 13,5 C 77 % 1012,9 hPa 0,0 l/m 4,8 km/h (1 Bft) W 279 0 min 0 W/m 9,5 C 13,5 C 11,3 km/h (2 Bft)
27.06.2017 01:27 13,5 C 76 % 1012,9 hPa 0,0 l/m 5,1 km/h (1 Bft) W 279 0 min 0 W/m 9,4 C 13,5 C 11,3 km/h (2 Bft)
27.06.2017 01:30 13,6 C 76 % 1012,9 hPa 0,0 l/m 5,5 km/h (2 Bft) W-NW 288 0 min 0 W/m 9,4 C 13,6 C 14,5 km/h (3 Bft)
27.06.2017 01:33 13,6 C 76 % 1012,9 hPa 0,0 l/m 5,1 km/h (1 Bft) W-NW 292 0 min 0 W/m 9,4 C 13,6 C 11,3 km/h (2 Bft)
27.06.2017 01:36 13,6 C 75 % 1012,9 hPa 0,0 l/m 4,9 km/h (1 Bft) W 277 0 min 0 W/m 9,3 C 13,6 C 9,7 km/h (2 Bft)
27.06.2017 01:39 13,6 C 75 % 1012,9 hPa 0,0 l/m 5,2 km/h (1 Bft) W 281 0 min 0 W/m 9,3 C 13,6 C 11,3 km/h (2 Bft)
27.06.2017 01:42 13,6 C 75 % 1012,9 hPa 0,0 l/m 4,6 km/h (1 Bft) W 266 0 min 0 W/m 9,3 C 13,6 C 9,7 km/h (2 Bft)
27.06.2017 01:45 13,6 C 74 % 1012,9 hPa 0,0 l/m 4,6 km/h (1 Bft) NW 306 0 min 0 W/m 9,1 C 13,6 C 9,7 km/h (2 Bft)
27.06.2017 01:48 13,6 C 74 % 1012,9 hPa 0,0 l/m 4,1 km/h (1 Bft) W 277 0 min 0 W/m 9,1 C 13,6 C 9,7 km/h (2 Bft)
27.06.2017 01:51 13,6 C 74 % 1012,9 hPa 0,0 l/m 5,5 km/h (2 Bft) W 281 0 min 0 W/m 9,1 C 13,6 C 12,9 km/h (3 Bft)
27.06.2017 01:54 13,6 C 74 % 1012,8 hPa 0,0 l/m 6,2 km/h (2 Bft) W 279 0 min 0 W/m 9,1 C 13,6 C 12,9 km/h (3 Bft)
27.06.2017 01:57 13,7 C 74 % 1012,8 hPa 0,0 l/m 5,4 km/h (2 Bft) W-SW 254 0 min 0 W/m 9,2 C 13,7 C 12,9 km/h (3 Bft)
27.06.2017 02:00 13,7 C 75 % 1012,8 hPa 0,0 l/m 5,3 km/h (1 Bft) W 277 0 min 0 W/m 9,3 C 13,7 C 14,5 km/h (3 Bft)
27.06.2017 02:03 13,7 C 74 % 1012,8 hPa 0,0 l/m 4,5 km/h (1 Bft) W-NW 282 0 min 0 W/m 9,2 C 13,7 C 11,3 km/h (2 Bft)
27.06.2017 02:06 13,7 C 74 % 1012,8 hPa 0,0 l/m 4,0 km/h (1 Bft) W 263 0 min 0 W/m 9,2 C 13,7 C 11,3 km/h (2 Bft)
27.06.2017 02:09 13,6 C 73 % 1012,8 hPa 0,0 l/m 3,4 km/h (1 Bft) W 263 0 min 0 W/m 8,9 C 13,6 C 12,9 km/h (3 Bft)
27.06.2017 02:12 13,6 C 73 % 1012,8 hPa 0,0 l/m 6,4 km/h (2 Bft) W 278 0 min 0 W/m 8,9 C 13,6 C 16,1 km/h (3 Bft)
27.06.2017 02:15 13,7 C 74 % 1012,7 hPa 0,0 l/m 6,2 km/h (2 Bft) W 263 0 min 0 W/m 9,2 C 13,7 C 14,5 km/h (3 Bft)
27.06.2017 02:18 13,7 C 74 % 1012,7 hPa 0,0 l/m 5,3 km/h (1 Bft) W-NW 283 0 min 0 W/m 9,2 C 13,7 C 11,3 km/h (2 Bft)
27.06.2017 02:21 13,7 C 74 % 1012,6 hPa 0,0 l/m 5,0 km/h (1 Bft) W 259 0 min 0 W/m 9,2 C 13,7 C 12,9 km/h (3 Bft)
27.06.2017 02:24 13,7 C 74 % 1012,7 hPa 0,0 l/m 5,0 km/h (1 Bft) W 273 0 min 0 W/m 9,2 C 13,7 C 11,3 km/h (2 Bft)
27.06.2017 02:27 13,8 C 73 % 1012,7 hPa 0,0 l/m 4,4 km/h (1 Bft) W-NW 286 0 min 0 W/m 9,0 C 13,8 C 11,3 km/h (2 Bft)
27.06.2017 02:30 13,8 C 73 % 1012,7 hPa 0,0 l/m 3,2 km/h (1 Bft) W-NW 286 0 min 0 W/m 9,0 C 13,8 C 6,4 km/h (2 Bft)
27.06.2017 02:33 13,9 C 74 % 1012,7 hPa 0,0 l/m 5,8 km/h (2 Bft) W-NW 300 0 min 0 W/m 9,3 C 13,9 C 16,1 km/h (3 Bft)
27.06.2017 02:36 13,9 C 73 % 1012,6 hPa 0,0 l/m 2,5 km/h (1 Bft) NW 310 0 min 0 W/m 9,1 C 13,9 C 11,3 km/h (2 Bft)
27.06.2017 02:39 14,0 C 72 % 1012,6 hPa 0,0 l/m 4,1 km/h (1 Bft) W-NW 286 0 min 0 W/m 9,0 C 14,0 C 11,3 km/h (2 Bft)
27.06.2017 02:42 14,1 C 72 % 1012,6 hPa 0,0 l/m 3,0 km/h (1 Bft) W 275 0 min 0 W/m 9,1 C 14,1 C 6,4 km/h (2 Bft)
27.06.2017 02:45 14,1 C 71 % 1012,6 hPa 0,0 l/m 5,1 km/h (1 Bft) NW 320 0 min 0 W/m 8,9 C 14,1 C 14,5 km/h (3 Bft)
27.06.2017 02:48 14,0 C 71 % 1012,6 hPa 0,0 l/m 4,4 km/h (1 Bft) NW 304 0 min 0 W/m 8,8 C 14,0 C 14,5 km/h (3 Bft)
27.06.2017 02:51 13,9 C 71 % 1012,5 hPa 0,0 l/m 7,1 km/h (2 Bft) N-NW 327 0 min 0 W/m 8,7 C 13,5 C 12,9 km/h (3 Bft)
27.06.2017 02:54 13,9 C 71 % 1012,6 hPa 0,0 l/m 3,6 km/h (1 Bft) W-NW 292 0 min 0 W/m 8,7 C 13,9 C 8,0 km/h (2 Bft)
27.06.2017 02:57 13,8 C 72 % 1012,6 hPa 0,0 l/m 4,4 km/h (1 Bft) W-NW 287 0 min 0 W/m 8,8 C 13,8 C 9,7 km/h (2 Bft)
27.06.2017 03:00 13,7 C 71 % 1012,6 hPa 0,0 l/m 4,0 km/h (1 Bft) W 280 0 min 0 W/m 8,5 C 13,7 C 9,7 km/h (2 Bft)
27.06.2017 03:03 13,7 C 71 % 1012,6 hPa 0,0 l/m 4,8 km/h (1 Bft) W-NW 289 0 min 0 W/m 8,5 C 13,7 C 12,9 km/h (3 Bft)
27.06.2017 03:06 13,7 C 72 % 1012,6 hPa 0,0 l/m 2,9 km/h (1 Bft) W-NW 284 0 min 0 W/m 8,7 C 13,7 C 6,4 km/h (2 Bft)
27.06.2017 03:09 13,6 C 72 % 1012,6 hPa 0,0 l/m 3,1 km/h (1 Bft) W-NW 284 0 min 0 W/m 8,6 C 13,6 C 6,4 km/h (2 Bft)
27.06.2017 03:12 13,6 C 72 % 1012,6 hPa 0,0 l/m 2,9 km/h (1 Bft) W-NW 284 0 min 0 W/m 8,6 C 13,6 C 9,7 km/h (2 Bft)
27.06.2017 03:15 13,6 C 73 % 1012,6 hPa 0,0 l/m 3,6 km/h (1 Bft) W-NW 293 0 min 0 W/m 8,9 C 13,6 C 8,0 km/h (2 Bft)
27.06.2017 03:18 13,4 C 73 % 1012,5 hPa 0,0 l/m 3,8 km/h (1 Bft) NW 311 0 min 0 W/m 8,7 C 13,4 C 6,4 km/h (2 Bft)
27.06.2017 03:21 13,4 C 74 % 1012,5 hPa 0,0 l/m 3,7 km/h (1 Bft) W 269 0 min 0 W/m 8,9 C 13,4 C 12,9 km/h (3 Bft)
27.06.2017 03:24 13,4 C 73 % 1012,5 hPa 0,0 l/m 5,8 km/h (2 Bft) W-NW 286 0 min 0 W/m 8,7 C 13,4 C 11,3 km/h (2 Bft)
27.06.2017 03:27 13,4 C 74 % 1012,6 hPa 0,0 l/m 3,0 km/h (1 Bft) W 281 0 min 0 W/m 8,9 C 13,4 C 6,4 km/h (2 Bft)
27.06.2017 03:30 13,4 C 74 % 1012,5 hPa 0,0 l/m 4,5 km/h (1 Bft) W-NW 291 0 min 0 W/m 8,9 C 13,4 C 8,0 km/h (2 Bft)
27.06.2017 03:33 13,5 C 74 % 1012,6 hPa 0,0 l/m 3,8 km/h (1 Bft) NW 313 0 min 0 W/m 9,0 C 13,5 C 9,7 km/h (2 Bft)
27.06.2017 03:36 13,6 C 74 % 1012,5 hPa 0,0 l/m 4,5 km/h (1 Bft) W 259 0 min 0 W/m 9,1 C 13,6 C 9,7 km/h (2 Bft)
27.06.2017 03:39 13,5 C 74 % 1012,5 hPa 0,0 l/m 4,2 km/h (1 Bft) W 267 0 min 0 W/m 9,0 C 13,5 C 9,7 km/h (2 Bft)
27.06.2017 03:42 13,5 C 74 % 1012,5 hPa 0,0 l/m 4,2 km/h (1 Bft) W 269 0 min 0 W/m 9,0 C 13,5 C 11,3 km/h (2 Bft)
27.06.2017 03:45 13,6 C 74 % 1012,5 hPa 0,0 l/m 4,4 km/h (1 Bft) W 275 0 min 0 W/m 9,1 C 13,6 C 11,3 km/h (2 Bft)
27.06.2017 03:48 13,6 C 74 % 1012,4 hPa 0,0 l/m 3,4 km/h (1 Bft) W 269 0 min 0 W/m 9,1 C 13,6 C 6,4 km/h (2 Bft)
27.06.2017 03:51 13,5 C 74 % 1012,5 hPa 0,0 l/m 3,0 km/h (1 Bft) W-NW 284 0 min 0 W/m 9,0 C 13,5 C 8,0 km/h (2 Bft)
27.06.2017 03:54 13,4 C 74 % 1012,4 hPa 0,0 l/m 3,1 km/h (1 Bft) NW 322 0 min 0 W/m 8,9 C 13,4 C 6,4 km/h (2 Bft)
27.06.2017 03:57 13,4 C 74 % 1012,5 hPa 0,0 l/m 2,9 km/h (1 Bft) W 279 0 min 0 W/m 8,9 C 13,4 C 6,4 km/h (2 Bft)
27.06.2017 04:00 13,4 C 74 % 1012,4 hPa 0,0 l/m 5,3 km/h (1 Bft) W-NW 282 0 min 0 W/m 8,9 C 13,4 C 12,9 km/h (3 Bft)
27.06.2017 04:03 13,4 C 75 % 1012,4 hPa 0,0 l/m 3,6 km/h (1 Bft) W-NW 286 0 min 0 W/m 9,1 C 13,4 C 6,4 km/h (2 Bft)
27.06.2017 04:06 13,4 C 75 % 1012,4 hPa 0,0 l/m 3,2 km/h (1 Bft) W-NW 284 0 min 0 W/m 9,1 C 13,4 C 11,3 km/h (2 Bft)
27.06.2017 04:09 13,4 C 76 % 1012,4 hPa 0,0 l/m 5,1 km/h (1 Bft) W 275 0 min 0 W/m 9,3 C 13,4 C 9,7 km/h (2 Bft)
27.06.2017 04:12 13,5 C 76 % 1012,3 hPa 0,0 l/m 3,5 km/h (1 Bft) W-NW 294 0 min 0 W/m 9,4 C 13,5 C 8,0 km/h (2 Bft)
27.06.2017 04:15 13,5 C 76 % 1012,3 hPa 0,0 l/m 4,9 km/h (1 Bft) W-NW 302 0 min 0 W/m 9,4 C 13,5 C 11,3 km/h (2 Bft)
27.06.2017 04:18 13,5 C 75 % 1012,3 hPa 0,0 l/m 5,8 km/h (2 Bft) W-SW 251 0 min 0 W/m 9,2 C 13,5 C 12,9 km/h (3 Bft)
27.06.2017 04:21 13,5 C 75 % 1012,3 hPa 0,0 l/m 5,2 km/h (1 Bft) W-NW 283 0 min 0 W/m 9,2 C 13,5 C 12,9 km/h (3 Bft)
27.06.2017 04:24 13,4 C 75 % 1012,2 hPa 0,0 l/m 4,9 km/h (1 Bft) N-NW 340 0 min 0 W/m 9,1 C 13,4 C 11,3 km/h (2 Bft)
27.06.2017 04:27 13,4 C 75 % 1012,2 hPa 0,0 l/m 5,1 km/h (1 Bft) W 281 0 min 0 W/m 9,1 C 13,4 C 14,5 km/h (3 Bft)
27.06.2017 04:30 13,4 C 76 % 1012,3 hPa 0,0 l/m 2,7 km/h (1 Bft) W 275 0 min 0 W/m 9,3 C 13,4 C 9,7 km/h (2 Bft)
27.06.2017 04:33 13,5 C 76 % 1012,2 hPa 0,0 l/m 2,9 km/h (1 Bft) W-NW 296 0 min 0 W/m 9,4 C 13,5 C 8,0 km/h (2 Bft)
27.06.2017 04:36 13,4 C 76 % 1012,3 hPa 0,0 l/m 2,2 km/h (1 Bft) W 274 0 min 0 W/m 9,3 C 13,4 C 6,4 km/h (2 Bft)
27.06.2017 04:39 13,5 C 76 % 1012,2 hPa 0,0 l/m 6,2 km/h (2 Bft) NW 309 0 min 0 W/m 9,4 C 13,5 C 12,9 km/h (3 Bft)
27.06.2017 04:42 13,5 C 76 % 1012,1 hPa 0,0 l/m 3,4 km/h (1 Bft) W-NW 291 0 min 0 W/m 9,4 C 13,5 C 8,0 km/h (2 Bft)
27.06.2017 04:45 13,4 C 76 % 1012,2 hPa 0,0 l/m 3,4 km/h (1 Bft) W-NW 292 0 min 0 W/m 9,3 C 13,4 C 6,4 km/h (2 Bft)
27.06.2017 04:48 13,4 C 76 % 1012,1 hPa 0,0 l/m 3,9 km/h (1 Bft) NW 304 0 min 0 W/m 9,3 C 13,4 C 12,9 km/h (3 Bft)
27.06.2017 04:51 13,3 C 77 % 1012,0 hPa 0,0 l/m 4,9 km/h (1 Bft) NW 305 0 min 0 W/m 9,4 C 13,3 C 11,3 km/h (2 Bft)
27.06.2017 04:54 13,4 C 77 % 1012,1 hPa 0,0 l/m 4,2 km/h (1 Bft) W-NW 296 0 min 0 W/m 9,5 C 13,4 C 11,3 km/h (2 Bft)
27.06.2017 04:57 13,4 C 77 % 1012,1 hPa 0,0 l/m 3,3 km/h (1 Bft) W-NW 284 0 min 0 W/m 9,5 C 13,4 C 9,7 km/h (2 Bft)
27.06.2017 05:00 13,4 C 78 % 1012,1 hPa 0,0 l/m 3,5 km/h (1 Bft) W 269 0 min 0 W/m 9,6 C 13,4 C 9,7 km/h (2 Bft)
27.06.2017 05:03 13,5 C 78 % 1012,1 hPa 0,0 l/m 3,5 km/h (1 Bft) W 276 0 min 5 W/m 9,7 C 13,5 C 9,7 km/h (2 Bft)
27.06.2017 05:06 13,6 C 78 % 1012,1 hPa 0,0 l/m 2,1 km/h (1 Bft) W 276 0 min 5 W/m 9,8 C 13,6 C 4,8 km/h (1 Bft)
27.06.2017 05:09 13,6 C 78 % 1012,1 hPa 0,0 l/m 3,8 km/h (1 Bft) W 279 0 min 5 W/m 9,8 C 13,6 C 9,7 km/h (2 Bft)
27.06.2017 05:12 13,7 C 78 % 1012,1 hPa 0,0 l/m 2,4 km/h (1 Bft) W-NW 298 0 min 7 W/m 9,9 C 13,7 C 6,4 km/h (2 Bft)
27.06.2017 05:15 13,7 C 78 % 1012,0 hPa 0,0 l/m 4,3 km/h (1 Bft) NW 304 0 min 7 W/m 9,9 C 13,7 C 8,0 km/h (2 Bft)
27.06.2017 05:18 13,7 C 77 % 1012,1 hPa 0,0 l/m 1,9 km/h (1 Bft) NW 304 0 min 9 W/m 9,7 C 13,7 C 6,4 km/h (2 Bft)
27.06.2017 05:21 13,7 C 78 % 1012,1 hPa 0,0 l/m 1,9 km/h (1 Bft) NW 324 0 min 9 W/m 9,9 C 13,7 C 4,8 km/h (1 Bft)
27.06.2017 05:24 13,6 C 79 % 1012,1 hPa 0,0 l/m 5,5 km/h (2 Bft) N 355 0 min 9 W/m 10,0 C 13,6 C 9,7 km/h (2 Bft)
27.06.2017 05:27 13,7 C 79 % 1012,1 hPa 0,0 l/m 5,8 km/h (2 Bft) N 355 0 min 11 W/m 10,1 C 13,7 C 9,7 km/h (2 Bft)
27.06.2017 05:30 13,8 C 79 % 1012,1 hPa 0,0 l/m 5,7 km/h (2 Bft) NW 313 0 min 14 W/m 10,2 C 13,8 C 11,3 km/h (2 Bft)
27.06.2017 05:33 13,9 C 79 % 1012,1 hPa 0,0 l/m 3,8 km/h (1 Bft) N-NW 346 0 min 16 W/m 10,3 C 13,9 C 8,0 km/h (2 Bft)
27.06.2017 05:36 13,9 C 79 % 1012,2 hPa 0,0 l/m 4,2 km/h (1 Bft) N 5 0 min 18 W/m 10,3 C 13,9 C 9,7 km/h (2 Bft)
27.06.2017 05:39 13,9 C 78 % 1012,1 hPa 0,0 l/m 4,3 km/h (1 Bft) NW 317 0 min 21 W/m 10,1 C 13,9 C 9,7 km/h (2 Bft)
27.06.2017 05:42 13,9 C 78 % 1012,1 hPa 0,0 l/m 4,6 km/h (1 Bft) NW 324 0 min 21 W/m 10,1 C 13,9 C 8,0 km/h (2 Bft)
27.06.2017 05:45 14,0 C 78 % 1012,2 hPa 0,0 l/m 3,4 km/h (1 Bft) NW 325 0 min 19 W/m 10,2 C 14,0 C 6,4 km/h (2 Bft)
27.06.2017 05:48 14,0 C 78 % 1012,1 hPa 0,0 l/m 1,6 km/h (1 Bft) NW 326 0 min 19 W/m 10,2 C 14,0 C 4,8 km/h (1 Bft)
27.06.2017 05:51 13,9 C 79 % 1012,1 hPa 0,0 l/m 2,9 km/h (1 Bft) N-NW 332 0 min 19 W/m 10,3 C 13,9 C 6,4 km/h (2 Bft)
27.06.2017 05:54 13,9 C 78 % 1012,2 hPa 0,0 l/m 2,3 km/h (1 Bft) N-NW 330 0 min 18 W/m 10,1 C 13,9 C 4,8 km/h (1 Bft)
27.06.2017 05:57 13,9 C 78 % 1012,1 hPa 0,0 l/m 0,7 km/h (0 Bft) N-NW 330 0 min 16 W/m 10,1 C 13,9 C 4,8 km/h (1 Bft)
27.06.2017 06:00 13,9 C 79 % 1012,1 hPa 0,0 l/m 1,3 km/h (1 Bft) N-NW 330 0 min 16 W/m 10,3 C 13,9 C 3,2 km/h (1 Bft)
27.06.2017 06:03 13,9 C 80 % 1012,2 hPa 0,0 l/m 2,4 km/h (1 Bft) NW 323 0 min 14 W/m 10,5 C 13,9 C 4,8 km/h (1 Bft)
27.06.2017 06:06 13,8 C 80 % 1012,2 hPa 0,0 l/m 0,7 km/h (0 Bft) NW 323 0 min 12 W/m 10,4 C 13,8 C 3,2 km/h (1 Bft)
27.06.2017 06:09 13,8 C 80 % 1012,2 hPa 0,0 l/m 2,1 km/h (1 Bft) NW 323 0 min 11 W/m 10,4 C 13,8 C 4,8 km/h (1 Bft)
27.06.2017 06:12 13,8 C 80 % 1012,2 hPa 0,0 l/m 1,8 km/h (1 Bft) NW 321 0 min 12 W/m 10,4 C 13,8 C 4,8 km/h (1 Bft)
27.06.2017 06:15 13,8 C 80 % 1012,2 hPa 0,0 l/m 1,4 km/h (1 Bft) NW 321 0 min 18 W/m 10,4 C 13,8 C 3,2 km/h (1 Bft)
27.06.2017 06:18 13,8 C 79 % 1012,2 hPa 0,0 l/m 2,6 km/h (1 Bft) N-NW 337 0 min 23 W/m 10,2 C 13,8 C 6,4 km/h (2 Bft)
27.06.2017 06:21 13,8 C 79 % 1012,2 hPa 0,0 l/m 1,4 km/h (1 Bft) N-NW 337 0 min 23 W/m 10,2 C 13,8 C 6,4 km/h (2 Bft)
27.06.2017 06:24 13,8 C 78 % 1012,2 hPa 0,0 l/m 2,1 km/h (1 Bft) N-NW 336 0 min 23 W/m 10,0 C 13,8 C 6,4 km/h (2 Bft)
27.06.2017 06:27 13,8 C 79 % 1012,2 hPa 0,0 l/m 0,2 km/h (0 Bft) N-NW 336 0 min 30 W/m 10,2 C 13,8 C 1,6 km/h (1 Bft)
27.06.2017 06:30 13,8 C 79 % 1012,2 hPa 0,0 l/m 1,5 km/h (1 Bft) N-NW 336 0 min 37 W/m 10,2 C 13,8 C 4,8 km/h (1 Bft)
27.06.2017 06:33 13,8 C 79 % 1012,3 hPa 0,0 l/m 1,6 km/h (1 Bft) N-NW 336 0 min 37 W/m 10,2 C 13,8 C 4,8 km/h (1 Bft)
27.06.2017 06:36 13,8 C 77 % 1012,3 hPa 0,0 l/m 3,1 km/h (1 Bft) N-NW 346 0 min 40 W/m 9,8 C 13,8 C 6,4 km/h (2 Bft)
27.06.2017 06:39 13,9 C 77 % 1012,3 hPa 0,0 l/m 3,2 km/h (1 Bft) N 355 0 min 46 W/m 9,9 C 13,9 C 8,0 km/h (2 Bft)
27.06.2017 06:42 14,1 C 76 % 1012,3 hPa 0,0 l/m 3,7 km/h (1 Bft) N-NW 341 0 min 51 W/m 9,9 C 14,1 C 6,4 km/h (2 Bft)
27.06.2017 06:45 14,1 C 76 % 1012,3 hPa 0,0 l/m 1,7 km/h (1 Bft) N-NW 341 0 min 54 W/m 9,9 C 14,1 C 3,2 km/h (1 Bft)
27.06.2017 06:48 14,1 C 76 % 1012,3 hPa 0,0 l/m 1,4 km/h (1 Bft) N 355 0 min 58 W/m 9,9 C 14,1 C 8,0 km/h (2 Bft)
27.06.2017 06:51 14,1 C 76 % 1012,3 hPa 0,0 l/m 2,3 km/h (1 Bft) N 350 0 min 54 W/m 9,9 C 14,1 C 6,4 km/h (2 Bft)
27.06.2017 06:54 14,2 C 76 % 1012,4 hPa 0,0 l/m 2,8 km/h (1 Bft) N 350 0 min 67 W/m 10,0 C 14,2 C 4,8 km/h (1 Bft)
27.06.2017 06:57 14,3 C 75 % 1012,4 hPa 0,0 l/m 3,1 km/h (1 Bft) N-NW 344 0 min 58 W/m 9,9 C 14,3 C 6,4 km/h (2 Bft)
27.06.2017 07:00 14,4 C 75 % 1012,4 hPa 0,0 l/m 4,1 km/h (1 Bft) N-NW 344 0 min 60 W/m 10,0 C 14,4 C 8,0 km/h (2 Bft)
27.06.2017 07:03 14,3 C 73 % 1012,3 hPa 0,0 l/m 4,5 km/h (1 Bft) N-NW 344 0 min 58 W/m 9,5 C 14,3 C 9,7 km/h (2 Bft)
27.06.2017 07:06 14,3 C 73 % 1012,3 hPa 0,0 l/m 3,9 km/h (1 Bft) N-NW 340 0 min 65 W/m 9,5 C 14,3 C 6,4 km/h (2 Bft)
27.06.2017 07:09 14,4 C 72 % 1012,3 hPa 0,0 l/m 2,9 km/h (1 Bft) N-NW 336 0 min 67 W/m 9,4 C 14,4 C 6,4 km/h (2 Bft)
27.06.2017 07:12 14,4 C 73 % 1012,3 hPa 0,0 l/m 4,9 km/h (1 Bft) NW 320 0 min 69 W/m 9,6 C 14,4 C 9,7 km/h (2 Bft)
27.06.2017 07:15 14,4 C 73 % 1012,4 hPa 0,0 l/m 4,1 km/h (1 Bft) N 5 0 min 77 W/m 9,6 C 14,4 C 9,7 km/h (2 Bft)
27.06.2017 07:18 14,5 C 73 % 1012,3 hPa 0,0 l/m 2,6 km/h (1 Bft) N 360 0 min 77 W/m 9,7 C 14,5 C 6,4 km/h (2 Bft)
27.06.2017 07:21 14,4 C 74 % 1012,3 hPa 0,0 l/m 1,6 km/h (1 Bft) N 360 0 min 90 W/m 9,8 C 14,4 C 6,4 km/h (2 Bft)
27.06.2017 07:24 14,4 C 75 % 1012,4 hPa 0,0 l/m 2,2 km/h (1 Bft) N 350 0 min 95 W/m 10,0 C 14,4 C 4,8 km/h (1 Bft)
27.06.2017 07:27 14,3 C 76 % 1012,4 hPa 0,0 l/m 1,1 km/h (1 Bft) NW 324 0 min 98 W/m 10,1 C 14,3 C 4,8 km/h (1 Bft)
27.06.2017 07:30 14,3 C 76 % 1012,3 hPa 0,0 l/m 3,1 km/h (1 Bft) N-NW 330 0 min 105 W/m 10,1 C 14,3 C 8,0 km/h (2 Bft)
27.06.2017 07:33 14,4 C 74 % 1012,4 hPa 0,0 l/m 4,6 km/h (1 Bft) NW 315 0 min 107 W/m 9,8 C 14,4 C 9,7 km/h (2 Bft)
27.06.2017 07:36 14,6 C 73 % 1012,4 hPa 0,0 l/m 3,6 km/h (1 Bft) N-NW 330 0 min 109 W/m 9,8 C 14,6 C 6,4 km/h (2 Bft)
27.06.2017 07:39 14,6 C 72 % 1012,4 hPa 0,0 l/m 2,5 km/h (1 Bft) N-NW 340 0 min 118 W/m 9,6 C 14,6 C 4,8 km/h (1 Bft)
27.06.2017 07:42 14,7 C 72 % 1012,4 hPa 0,0 l/m 3,7 km/h (1 Bft) N-NW 340 0 min 123 W/m 9,7 C 14,7 C 6,4 km/h (2 Bft)
27.06.2017 07:45 14,8 C 72 % 1012,4 hPa 0,0 l/m 3,4 km/h (1 Bft) NW 325 0 min 148 W/m 9,8 C 14,8 C 6,4 km/h (2 Bft)
27.06.2017 07:48 14,9 C 72 % 1012,4 hPa 0,0 l/m 1,2 km/h (1 Bft) NW 325 0 min 151 W/m 9,9 C 14,9 C 3,2 km/h (1 Bft)
27.06.2017 07:51 14,8 C 75 % 1012,4 hPa 0,0 l/m 0,0 km/h (0 Bft) NW 325 0 min 169 W/m 10,4 C 14,8 C 0,0 km/h (0 Bft)
27.06.2017 07:54 14,8 C 76 % 1012,4 hPa 0,0 l/m 1,2 km/h (1 Bft) N-NW 327 0 min 174 W/m 10,6 C 14,8 C 3,2 km/h (1 Bft)
27.06.2017 07:57 14,9 C 74 % 1012,4 hPa 0,0 l/m 1,4 km/h (1 Bft) N-NW 333 0 min 148 W/m 10,3 C 14,9 C 6,4 km/h (2 Bft)
27.06.2017 08:00 14,9 C 75 % 1012,4 hPa 0,0 l/m 1,3 km/h (1 Bft) N-NW 331 0 min 141 W/m 10,5 C 14,9 C 3,2 km/h (1 Bft)
27.06.2017 08:03 14,9 C 73 % 1012,5 hPa 0,0 l/m 0,6 km/h (0 Bft) N-NW 331 0 min 137 W/m 10,1 C 14,9 C 1,6 km/h (1 Bft)
27.06.2017 08:06 14,9 C 73 % 1012,4 hPa 0,0 l/m 1,9 km/h (1 Bft) N-NW 331 0 min 146 W/m 10,1 C 14,9 C 4,8 km/h (1 Bft)
27.06.2017 08:09 15,0 C 71 % 1012,4 hPa 0,0 l/m 1,9 km/h (1 Bft) N-NW 331 0 min 160 W/m 9,8 C 15,0 C 4,8 km/h (1 Bft)
27.06.2017 08:12 15,1 C 73 % 1012,4 hPa 0,0 l/m 1,1 km/h (1 Bft) N-NW 332 0 min 165 W/m 10,3 C 15,1 C 3,2 km/h (1 Bft)
27.06.2017 08:15 14,9 C 73 % 1012,4 hPa 0,0 l/m 1,2 km/h (1 Bft) N-NW 332 0 min 151 W/m 10,1 C 14,9 C 4,8 km/h (1 Bft)
27.06.2017 08:18 15,0 C 72 % 1012,3 hPa 0,0 l/m 0,7 km/h (0 Bft) N-NW 332 0 min 146 W/m 10,0 C 15,0 C 3,2 km/h (1 Bft)
27.06.2017 08:21 14,9 C 73 % 1012,4 hPa 0,0 l/m 0,6 km/h (0 Bft) N-NW 332 0 min 160 W/m 10,1 C 14,9 C 3,2 km/h (1 Bft)
27.06.2017 08:24 14,8 C 74 % 1012,4 hPa 0,0 l/m 0,4 km/h (0 Bft) N-NW 332 0 min 176 W/m 10,2 C 14,8 C 3,2 km/h (1 Bft)
27.06.2017 08:27 14,8 C 74 % 1012,4 hPa 0,0 l/m 1,4 km/h (1 Bft) N-NW 332 0 min 163 W/m 10,2 C 14,8 C 4,8 km/h (1 Bft)
27.06.2017 08:30 14,8 C 73 % 1012,4 hPa 0,0 l/m 2,0 km/h (1 Bft) NW 325 0 min 156 W/m 10,0 C 14,8 C 6,4 km/h (2 Bft)
27.06.2017 08:33 14,9 C 73 % 1012,4 hPa 0,0 l/m 2,3 km/h (1 Bft) NW 325 0 min 156 W/m 10,1 C 14,9 C 4,8 km/h (1 Bft)
27.06.2017 08:36 14,9 C 74 % 1012,4 hPa 0,0 l/m 0,6 km/h (0 Bft) NW 325 0 min 151 W/m 10,3 C 14,9 C 3,2 km/h (1 Bft)
27.06.2017 08:39 14,8 C 73 % 1012,3 hPa 0,0 l/m 0,7 km/h (0 Bft) NW 325 0 min 149 W/m 10,0 C 14,8 C 3,2 km/h (1 Bft)
27.06.2017 08:42 14,7 C 74 % 1012,3 hPa 0,0 l/m 1,1 km/h (1 Bft) NW 325 0 min 139 W/m 10,1 C 14,7 C 3,2 km/h (1 Bft)
27.06.2017 08:45 14,7 C 75 % 1012,3 hPa 0,0 l/m 0,9 km/h (0 Bft) NW 325 0 min 165 W/m 10,3 C 14,7 C 3,2 km/h (1 Bft)
27.06.2017 08:48 14,7 C 76 % 1012,3 hPa 0,0 l/m 0,4 km/h (0 Bft) NW 325 0 min 158 W/m 10,5 C 14,7 C 1,6 km/h (1 Bft)
27.06.2017 08:51 14,7 C 75 % 1012,4 hPa 0,0 l/m 0,9 km/h (0 Bft) NW 325 0 min 162 W/m 10,3 C 14,7 C 3,2 km/h (1 Bft)
27.06.2017 08:54 14,8 C 76 % 1012,3 hPa 0,0 l/m 0,6 km/h (0 Bft) NW 325 0 min 171 W/m 10,6 C 14,8 C 3,2 km/h (1 Bft)
27.06.2017 08:57 14,9 C 76 % 1012,3 hPa 0,0 l/m 1,9 km/h (1 Bft) O-NO 64 0 min 183 W/m 10,7 C 14,9 C 6,4 km/h (2 Bft)
27.06.2017 09:00 15,1 C 77 % 1012,4 hPa 0,0 l/m 2,3 km/h (1 Bft) S-SO 159 0 min 188 W/m 11,1 C 15,1 C 8,0 km/h (2 Bft)
27.06.2017 09:03 15,1 C 75 % 1012,4 hPa 0,0 l/m 1,1 km/h (1 Bft) S-SO 159 0 min 234 W/m 10,7 C 15,1 C 3,2 km/h (1 Bft)
27.06.2017 09:06 15,1 C 75 % 1012,3 hPa 0,0 l/m 0,0 km/h (0 Bft) S-SO 159 0 min 251 W/m 10,7 C 15,1 C 0,0 km/h (0 Bft)
27.06.2017 09:09 15,2 C 74 % 1012,4 hPa 0,0 l/m 0,4 km/h (0 Bft) S-SO 159 0 min 274 W/m 10,6 C 15,2 C 1,6 km/h (1 Bft)
27.06.2017 09:12 15,4 C 73 % 1012,3 hPa 0,0 l/m 0,0 km/h (0 Bft) S-SO 159 3 min 566 W/m 10,6 C 15,4 C 0,0 km/h (0 Bft)
27.06.2017 09:15 15,6 C 74 % 1012,3 hPa 0,0 l/m 0,4 km/h (0 Bft) S-SO 159 3 min 396 W/m 11,0 C 15,6 C 3,2 km/h (1 Bft)
27.06.2017 09:18 16,1 C 73 % 1012,4 hPa 0,0 l/m 0,5 km/h (0 Bft) SO 146 3 min 396 W/m 11,3 C 16,1 C 4,8 km/h (1 Bft)
27.06.2017 09:21 16,1 C 72 % 1012,5 hPa 0,0 l/m 2,9 km/h (1 Bft) NO 53 0 min 295 W/m 11,0 C 16,1 C 6,4 km/h (2 Bft)
27.06.2017 09:24 15,8 C 70 % 1012,4 hPa 0,0 l/m 2,2 km/h (1 Bft) NO 51 0 min 176 W/m 10,3 C 15,8 C 4,8 km/h (1 Bft)
27.06.2017 09:27 15,6 C 72 % 1012,4 hPa 0,0 l/m 0,7 km/h (0 Bft) NO 51 0 min 155 W/m 10,6 C 15,6 C 3,2 km/h (1 Bft)
27.06.2017 09:30 15,6 C 73 % 1012,4 hPa 0,0 l/m 1,4 km/h (1 Bft) N-NO 23 0 min 139 W/m 10,8 C 15,6 C 4,8 km/h (1 Bft)
27.06.2017 09:33 15,4 C 74 % 1012,4 hPa 0,0 l/m 0,8 km/h (0 Bft) N-NO 23 0 min 125 W/m 10,8 C 15,4 C 3,2 km/h (1 Bft)
27.06.2017 09:36 15,3 C 73 % 1012,4 hPa 0,0 l/m 1,0 km/h (0 Bft) O 80 0 min 121 W/m 10,5 C 15,3 C 3,2 km/h (1 Bft)
27.06.2017 09:39 15,2 C 74 % 1012,5 hPa 0,0 l/m 0,9 km/h (0 Bft) NO 53 0 min 118 W/m 10,6 C 15,2 C 4,8 km/h (1 Bft)
27.06.2017 09:42 15,2 C 74 % 1012,5 hPa 0,0 l/m 1,6 km/h (1 Bft) NO 53 0 min 107 W/m 10,6 C 15,2 C 4,8 km/h (1 Bft)
27.06.2017 09:45 15,1 C 75 % 1012,5 hPa 0,0 l/m 1,4 km/h (1 Bft) NO 55 0 min 104 W/m 10,7 C 15,1 C 3,2 km/h (1 Bft)
27.06.2017 09:48 15,0 C 74 % 1012,4 hPa 0,0 l/m 1,1 km/h (1 Bft) NO 49 0 min 111 W/m 10,4 C 15,0 C 4,8 km/h (1 Bft)
27.06.2017 09:51 14,9 C 76 % 1012,4 hPa 0,0 l/m 0,6 km/h (0 Bft) NO 45 0 min 116 W/m 10,7 C 14,9 C 4,8 km/h (1 Bft)
27.06.2017 09:54 15,1 C 77 % 1012,3 hPa 0,0 l/m 1,6 km/h (1 Bft) NO 46 0 min 132 W/m 11,1 C 15,1 C 3,2 km/h (1 Bft)
27.06.2017 09:57 15,0 C 75 % 1012,3 hPa 0,0 l/m 1,5 km/h (1 Bft) NO 49 0 min 148 W/m 10,6 C 15,0 C 4,8 km/h (1 Bft)
27.06.2017 10:00 15,0 C 75 % 1012,3 hPa 0,0 l/m 0,4 km/h (0 Bft) NO 48 0 min 149 W/m 10,6 C 15,0 C 3,2 km/h (1 Bft)
27.06.2017 10:03 15,1 C 75 % 1012,3 hPa 0,0 l/m 0,4 km/h (0 Bft) NO 49 0 min 151 W/m 10,7 C 15,1 C 3,2 km/h (1 Bft)
27.06.2017 10:06 15,1 C 75 % 1012,2 hPa 0,0 l/m 0,7 km/h (0 Bft) O 82 0 min 174 W/m 10,7 C 15,1 C 4,8 km/h (1 Bft)
27.06.2017 10:09 15,1 C 75 % 1012,2 hPa 0,0 l/m 1,1 km/h (1 Bft) O-NO 75 0 min 202 W/m 10,7 C 15,1 C 3,2 km/h (1 Bft)
27.06.2017 10:12 15,1 C 76 % 1012,2 hPa 0,0 l/m 2,0 km/h (1 Bft) NO 56 0 min 221 W/m 10,9 C 15,1 C 6,4 km/h (2 Bft)
27.06.2017 10:15 15,0 C 74 % 1012,3 hPa 0,0 l/m 1,3 km/h (1 Bft) NO 56 0 min 218 W/m 10,4 C 15,0 C 3,2 km/h (1 Bft)
27.06.2017 10:18 15,3 C 74 % 1012,2 hPa 0,0 l/m 1,8 km/h (1 Bft) NO 48 3 min 534 W/m 10,7 C 15,3 C 4,8 km/h (1 Bft)
27.06.2017 10:21 15,7 C 72 % 1012,2 hPa 0,0 l/m 2,2 km/h (1 Bft) NO 42 0 min 269 W/m 10,7 C 15,7 C 6,4 km/h (2 Bft)
27.06.2017 10:24 15,7 C 71 % 1012,3 hPa 0,0 l/m 3,5 km/h (1 Bft) N-NO 27 0 min 339 W/m 10,5 C 15,7 C 6,4 km/h (2 Bft)
27.06.2017 10:27 15,6 C 72 % 1012,3 hPa 0,0 l/m 2,0 km/h (1 Bft) N-NO 17 0 min 241 W/m 10,6 C 15,6 C 4,8 km/h (1 Bft)
27.06.2017 10:30 15,6 C 71 % 1012,3 hPa 0,0 l/m 0,8 km/h (0 Bft) N-NO 17 0 min 236 W/m 10,4 C 15,6 C 3,2 km/h (1 Bft)
27.06.2017 10:33 15,6 C 71 % 1012,2 hPa 0,0 l/m 3,7 km/h (1 Bft) N 355 0 min 287 W/m 10,4 C 15,6 C 9,7 km/h (2 Bft)
27.06.2017 10:36 15,7 C 70 % 1012,2 hPa 0,0 l/m 3,4 km/h (1 Bft) N-NW 346 3 min 687 W/m 10,2 C 15,7 C 6,4 km/h (2 Bft)
27.06.2017 10:39 16,2 C 69 % 1012,2 hPa 0,0 l/m 1,5 km/h (1 Bft) NO 56 3 min 457 W/m 10,5 C 16,2 C 8,0 km/h (2 Bft)
27.06.2017 10:42 16,2 C 68 % 1012,2 hPa 0,0 l/m 4,3 km/h (1 Bft) N-NO 25 0 min 323 W/m 10,3 C 16,2 C 8,0 km/h (2 Bft)
27.06.2017 10:45 16,3 C 68 % 1012,2 hPa 0,0 l/m 2,4 km/h (1 Bft) N-NO 25 0 min 323 W/m 10,4 C 16,3 C 4,8 km/h (1 Bft)
27.06.2017 10:48 16,4 C 69 % 1012,1 hPa 0,0 l/m 2,4 km/h (1 Bft) N-NW 336 0 min 336 W/m 10,7 C 16,4 C 4,8 km/h (1 Bft)
27.06.2017 10:51 16,3 C 67 % 1012,1 hPa 0,0 l/m 2,8 km/h (1 Bft) N-NW 338 0 min 309 W/m 10,2 C 16,3 C 6,4 km/h (2 Bft)
27.06.2017 10:54 16,1 C 67 % 1012,1 hPa 0,0 l/m 1,1 km/h (1 Bft) N-NW 338 0 min 330 W/m 10,0 C 16,1 C 3,2 km/h (1 Bft)
27.06.2017 10:57 16,2 C 69 % 1012,1 hPa 0,0 l/m 0,7 km/h (0 Bft) N-NW 339 3 min 566 W/m 10,5 C 16,2 C 4,8 km/h (1 Bft)
27.06.2017 11:00 16,5 C 70 % 1012,1 hPa 0,0 l/m 3,0 km/h (1 Bft) N 355 3 min 445 W/m 11,0 C 16,5 C 8,0 km/h (2 Bft)
27.06.2017 11:03 16,6 C 68 % 1012,1 hPa 0,0 l/m 3,5 km/h (1 Bft) N 10 3 min 515 W/m 10,7 C 16,6 C 8,0 km/h (2 Bft)
27.06.2017 11:06 16,8 C 68 % 1012,1 hPa 0,0 l/m 2,7 km/h (1 Bft) NO 53 3 min 496 W/m 10,9 C 16,8 C 11,3 km/h (2 Bft)
27.06.2017 11:09 16,5 C 67 % 1012,1 hPa 0,0 l/m 2,9 km/h (1 Bft) N 355 0 min 267 W/m 10,4 C 16,5 C 6,4 km/h (2 Bft)
27.06.2017 11:12 16,2 C 67 % 1012,1 hPa 0,0 l/m 2,0 km/h (1 Bft) N 355 0 min 283 W/m 10,1 C 16,2 C 3,2 km/h (1 Bft)
27.06.2017 11:15 16,2 C 69 % 1012,1 hPa 0,0 l/m 2,8 km/h (1 Bft) N-NW 332 0 min 320 W/m 10,5 C 16,2 C 6,4 km/h (2 Bft)
27.06.2017 11:18 16,2 C 70 % 1012,1 hPa 0,0 l/m 2,9 km/h (1 Bft) N-NW 327 0 min 362 W/m 10,7 C 16,2 C 4,8 km/h (1 Bft)
27.06.2017 11:21 16,3 C 68 % 1012,1 hPa 0,0 l/m 4,3 km/h (1 Bft) NO 55 0 min 387 W/m 10,4 C 16,3 C 9,7 km/h (2 Bft)
27.06.2017 11:24 16,4 C 70 % 1012,1 hPa 0,0 l/m 5,0 km/h (1 Bft) N-NW 345 3 min 710 W/m 10,9 C 16,4 C 8,0 km/h (2 Bft)
27.06.2017 11:27 16,9 C 69 % 1012,1 hPa 0,0 l/m 3,3 km/h (1 Bft) N 351 3 min 621 W/m 11,2 C 16,9 C 12,9 km/h (3 Bft)
27.06.2017 11:30 17,1 C 67 % 1012,1 hPa 0,0 l/m 2,3 km/h (1 Bft) N 355 0 min 366 W/m 10,9 C 17,1 C 4,8 km/h (1 Bft)
27.06.2017 11:33 16,9 C 67 % 1012,0 hPa 0,0 l/m 3,7 km/h (1 Bft) N 10 3 min 431 W/m 10,7 C 16,9 C 8,0 km/h (2 Bft)
27.06.2017 11:36 17,0 C 67 % 1012,0 hPa 0,0 l/m 2,4 km/h (1 Bft) O-NO 62 3 min 726 W/m 10,8 C 17,0 C 6,4 km/h (2 Bft)
27.06.2017 11:39 17,4 C 69 % 1012,1 hPa 0,0 l/m 2,6 km/h (1 Bft) N-NW 347 3 min 722 W/m 11,7 C 17,4 C 4,8 km/h (1 Bft)
27.06.2017 11:42 17,6 C 65 % 1012,0 hPa 0,0 l/m 5,2 km/h (1 Bft) N-NO 24 0 min 359 W/m 10,9 C 17,6 C 9,7 km/h (2 Bft)
27.06.2017 11:45 17,3 C 66 % 1012,0 hPa 0,0 l/m 3,3 km/h (1 Bft) O-NO 57 0 min 360 W/m 10,9 C 17,3 C 8,0 km/h (2 Bft)
27.06.2017 11:48 17,1 C 67 % 1012,0 hPa 0,0 l/m 2,0 km/h (1 Bft) N 360 0 min 353 W/m 10,9 C 17,1 C 4,8 km/h (1 Bft)
27.06.2017 11:51 16,9 C 72 % 1012,0 hPa 0,0 l/m 4,2 km/h (1 Bft) N-NO 24 0 min 392 W/m 11,8 C 16,9 C 9,7 km/h (2 Bft)
27.06.2017 11:54 17,1 C 70 % 1011,9 hPa 0,0 l/m 2,7 km/h (1 Bft) O-NO 57 3 min 512 W/m 11,6 C 17,1 C 6,4 km/h (2 Bft)
27.06.2017 11:57 17,2 C 68 % 1012,1 hPa 0,0 l/m 2,5 km/h (1 Bft) SW 236 0 min 406 W/m 11,2 C 17,2 C 4,8 km/h (1 Bft)
27.06.2017 12:00 17,3 C 64 % 1012,0 hPa 0,0 l/m 5,1 km/h (1 Bft) W-NW 300 0 min 394 W/m 10,4 C 17,3 C 11,3 km/h (2 Bft)
27.06.2017 12:03 17,3 C 67 % 1012,0 hPa 0,0 l/m 3,8 km/h (1 Bft) NO 46 3 min 450 W/m 11,1 C 17,3 C 8,0 km/h (2 Bft)
27.06.2017 12:06 17,2 C 67 % 1011,9 hPa 0,0 l/m 3,3 km/h (1 Bft) N 355 0 min 373 W/m 11,0 C 17,2 C 6,4 km/h (2 Bft)
27.06.2017 12:09 17,3 C 66 % 1011,9 hPa 0,0 l/m 3,3 km/h (1 Bft) N 360 0 min 373 W/m 10,9 C 17,3 C 6,4 km/h (2 Bft)
27.06.2017 12:12 17,5 C 65 % 1011,9 hPa 0,0 l/m 3,6 km/h (1 Bft) N-NW 342 0 min 346 W/m 10,8 C 17,5 C 11,3 km/h (2 Bft)
27.06.2017 12:15 17,2 C 65 % 1011,9 hPa 0,0 l/m 3,5 km/h (1 Bft) NO 45 0 min 269 W/m 10,6 C 17,2 C 4,8 km/h (1 Bft)
27.06.2017 12:18 16,9 C 66 % 1011,9 hPa 0,0 l/m 4,4 km/h (1 Bft) N-NO 16 0 min 350 W/m 10,5 C 16,9 C 8,0 km/h (2 Bft)
27.06.2017 12:21 17,0 C 69 % 1011,9 hPa 0,0 l/m 3,5 km/h (1 Bft) NW 319 0 min 357 W/m 11,3 C 17,0 C 8,0 km/h (2 Bft)
27.06.2017 12:24 17,1 C 67 % 1011,9 hPa 0,0 l/m 2,0 km/h (1 Bft) N-NO 27 0 min 329 W/m 10,9 C 17,1 C 6,4 km/h (2 Bft)
27.06.2017 12:27 17,1 C 67 % 1011,9 hPa 0,0 l/m 2,2 km/h (1 Bft) N-NO 25 0 min 383 W/m 10,9 C 17,1 C 8,0 km/h (2 Bft)
27.06.2017 12:30 17,7 C 64 % 1011,8 hPa 0,0 l/m 5,0 km/h (1 Bft) NW 323 3 min 925 W/m 10,8 C 17,7 C 11,3 km/h (2 Bft)
27.06.2017 12:33 17,8 C 64 % 1011,8 hPa 0,0 l/m 3,7 km/h (1 Bft) N 5 0 min 309 W/m 10,9 C 17,8 C 8,0 km/h (2 Bft)
27.06.2017 12:36 17,7 C 63 % 1011,8 hPa 0,0 l/m 4,0 km/h (1 Bft) N 5 0 min 406 W/m 10,6 C 17,7 C 6,4 km/h (2 Bft)
27.06.2017 12:39 17,6 C 66 % 1011,8 hPa 0,0 l/m 3,8 km/h (1 Bft) N-NW 338 0 min 336 W/m 11,2 C 17,6 C 8,0 km/h (2 Bft)
27.06.2017 12:42 17,6 C 64 % 1011,7 hPa 0,0 l/m 2,8 km/h (1 Bft) NO 37 0 min 294 W/m 10,7 C 17,6 C 8,0 km/h (2 Bft)
27.06.2017 12:45 17,5 C 67 % 1011,7 hPa 0,0 l/m 2,1 km/h (1 Bft) N-NO 26 0 min 294 W/m 11,3 C 17,5 C 6,4 km/h (2 Bft)
27.06.2017 12:48 17,7 C 63 % 1011,7 hPa 0,0 l/m 4,1 km/h (1 Bft) N-NO 33 3 min 810 W/m 10,6 C 17,7 C 8,0 km/h (2 Bft)
27.06.2017 12:51 18,2 C 64 % 1011,6 hPa 0,0 l/m 5,0 km/h (1 Bft) N 360 3 min 768 W/m 11,3 C 18,2 C 12,9 km/h (3 Bft)
27.06.2017 12:54 18,2 C 61 % 1011,5 hPa 0,0 l/m 2,4 km/h (1 Bft) N 355 3 min 536 W/m 10,6 C 18,2 C 6,4 km/h (2 Bft)
27.06.2017 12:57 18,3 C 65 % 1011,6 hPa 0,0 l/m 3,0 km/h (1 Bft) NW 317 3 min 921 W/m 11,6 C 18,3 C 8,0 km/h (2 Bft)
27.06.2017 13:00 18,3 C 65 % 1011,5 hPa 0,0 l/m 2,9 km/h (1 Bft) N 360 3 min 821 W/m 11,6 C 18,3 C 6,4 km/h (2 Bft)
27.06.2017 13:03 18,7 C 60 % 1011,5 hPa 0,0 l/m 4,4 km/h (1 Bft) NW 306 3 min 847 W/m 10,8 C 18,7 C 9,7 km/h (2 Bft)
27.06.2017 13:06 19,0 C 60 % 1011,4 hPa 0,0 l/m 2,8 km/h (1 Bft) N 9 3 min 863 W/m 11,1 C 19,0 C 4,8 km/h (1 Bft)
27.06.2017 13:09 19,2 C 60 % 1011,4 hPa 0,0 l/m 4,1 km/h (1 Bft) N 355 3 min 833 W/m 11,2 C 19,2 C 9,7 km/h (2 Bft)
27.06.2017 13:12 19,0 C 61 % 1011,4 hPa 0,0 l/m 4,3 km/h (1 Bft) N 360 3 min 865 W/m 11,3 C 19,0 C 8,0 km/h (2 Bft)
27.06.2017 13:15 19,3 C 61 % 1011,4 hPa 0,0 l/m 5,2 km/h (1 Bft) N 355 3 min 911 W/m 11,6 C 19,3 C 14,5 km/h (3 Bft)
27.06.2017 13:18 19,1 C 59 % 1011,4 hPa 0,0 l/m 5,1 km/h (1 Bft) N-NO 30 3 min 868 W/m 10,9 C 19,1 C 11,3 km/h (2 Bft)
27.06.2017 13:21 19,2 C 62 % 1011,4 hPa 0,0 l/m 4,0 km/h (1 Bft) NO 51 3 min 854 W/m 11,7 C 19,2 C 9,7 km/h (2 Bft)
27.06.2017 13:24 19,2 C 60 % 1011,3 hPa 0,0 l/m 3,5 km/h (1 Bft) W-NW 295 3 min 863 W/m 11,2 C 19,2 C 12,9 km/h (3 Bft)
27.06.2017 13:27 19,4 C 59 % 1011,3 hPa 0,0 l/m 5,4 km/h (2 Bft) N-NO 21 3 min 865 W/m 11,2 C 19,4 C 12,9 km/h (3 Bft)
27.06.2017 13:30 19,3 C 59 % 1011,3 hPa 0,0 l/m 5,1 km/h (1 Bft) O-NO 63 3 min 849 W/m 11,1 C 19,3 C 14,5 km/h (3 Bft)
27.06.2017 13:33 19,2 C 58 % 1011,2 hPa 0,0 l/m 7,6 km/h (2 Bft) N 350 3 min 851 W/m 10,7 C 18,7 C 16,1 km/h (3 Bft)
27.06.2017 13:36 19,3 C 59 % 1011,2 hPa 0,0 l/m 5,2 km/h (1 Bft) N 5 3 min 856 W/m 11,1 C 19,3 C 12,9 km/h (3 Bft)
27.06.2017 13:39 19,3 C 60 % 1011,2 hPa 0,0 l/m 6,9 km/h (2 Bft) NO 47 3 min 842 W/m 11,3 C 19,1 C 12,9 km/h (3 Bft)
27.06.2017 13:42 19,5 C 59 % 1011,2 hPa 0,0 l/m 9,4 km/h (2 Bft) N-NO 15 3 min 874 W/m 11,3 C 18,3 C 16,1 km/h (3 Bft)
27.06.2017 13:45 19,4 C 59 % 1011,1 hPa 0,0 l/m 6,0 km/h (2 Bft) N 5 3 min 847 W/m 11,2 C 19,4 C 12,9 km/h (3 Bft)
27.06.2017 13:48 19,5 C 58 % 1011,0 hPa 0,0 l/m 7,1 km/h (2 Bft) N-NO 19 3 min 861 W/m 11,0 C 19,2 C 14,5 km/h (3 Bft)
27.06.2017 13:51 19,6 C 57 % 1011,0 hPa 0,0 l/m 6,5 km/h (2 Bft) N 350 3 min 854 W/m 10,8 C 19,6 C 14,5 km/h (3 Bft)
27.06.2017 13:54 19,7 C 57 % 1011,0 hPa 0,0 l/m 5,1 km/h (1 Bft) N 355 3 min 828 W/m 10,9 C 19,7 C 9,7 km/h (2 Bft)
27.06.2017 13:57 19,7 C 58 % 1011,0 hPa 0,0 l/m 4,2 km/h (1 Bft) N-NW 339 3 min 881 W/m 11,2 C 19,7 C 9,7 km/h (2 Bft)
27.06.2017 14:00 19,9 C 58 % 1010,9 hPa 0,0 l/m 7,2 km/h (2 Bft) NW 325 3 min 828 W/m 11,4 C 19,6 C 19,3 km/h (3 Bft)
27.06.2017 14:03 19,9 C 57 % 1011,0 hPa 0,0 l/m 3,5 km/h (1 Bft) N-NO 17 3 min 788 W/m 11,1 C 19,9 C 8,0 km/h (2 Bft)
27.06.2017 14:06 19,8 C 58 % 1011,0 hPa 0,0 l/m 4,5 km/h (1 Bft) N 360 3 min 821 W/m 11,3 C 19,8 C 9,7 km/h (2 Bft)
27.06.2017 14:09 19,9 C 57 % 1011,0 hPa 0,0 l/m 7,3 km/h (2 Bft) N 355 3 min 710 W/m 11,1 C 19,5 C 16,1 km/h (3 Bft)
27.06.2017 14:12 19,6 C 58 % 1011,0 hPa 0,0 l/m 6,9 km/h (2 Bft) N 5 3 min 705 W/m 11,1 C 19,4 C 17,7 km/h (3 Bft)
27.06.2017 14:15 19,5 C 61 % 1010,9 hPa 0,0 l/m 3,2 km/h (1 Bft) N 355 3 min 789 W/m 11,8 C 19,5 C 8,0 km/h (2 Bft)
27.06.2017 14:18 19,7 C 60 % 1010,9 hPa 0,0 l/m 5,6 km/h (2 Bft) NW 319 3 min 761 W/m 11,7 C 19,7 C 12,9 km/h (3 Bft)
27.06.2017 14:21 19,9 C 58 % 1010,8 hPa 0,0 l/m 7,1 km/h (2 Bft) N 360 3 min 728 W/m 11,4 C 19,6 C 14,5 km/h (3 Bft)
27.06.2017 14:24 19,8 C 60 % 1010,8 hPa 0,0 l/m 5,9 km/h (2 Bft) N-NW 338 3 min 772 W/m 11,8 C 19,8 C 9,7 km/h (2 Bft)
27.06.2017 14:27 19,6 C 59 % 1010,7 hPa 0,0 l/m 5,9 km/h (2 Bft) N 360 3 min 791 W/m 11,4 C 19,6 C 14,5 km/h (3 Bft)
27.06.2017 14:30 19,5 C 57 % 1010,8 hPa 0,0 l/m 5,4 km/h (2 Bft) N 5 3 min 800 W/m 10,8 C 19,5 C 8,0 km/h (2 Bft)
27.06.2017 14:33 19,6 C 58 % 1010,7 hPa 0,0 l/m 6,0 km/h (2 Bft) N-NO 22 3 min 824 W/m 11,1 C 19,6 C 12,9 km/h (3 Bft)
27.06.2017 14:36 19,7 C 58 % 1010,7 hPa 0,0 l/m 5,0 km/h (1 Bft) N-NW 346 3 min 814 W/m 11,2 C 19,7 C 14,5 km/h (3 Bft)
27.06.2017 14:39 19,8 C 59 % 1010,7 hPa 0,0 l/m 4,6 km/h (1 Bft) N 5 3 min 761 W/m 11,6 C 19,8 C 9,7 km/h (2 Bft)
27.06.2017 14:42 20,2 C 58 % 1010,6 hPa 0,0 l/m 5,0 km/h (1 Bft) N-NO 21 3 min 837 W/m 11,7 C 20,2 C 14,5 km/h (3 Bft)
27.06.2017 14:45 20,2 C 57 % 1010,6 hPa 0,0 l/m 7,1 km/h (2 Bft) N-NO 20 3 min 842 W/m 11,4 C 19,9 C 14,5 km/h (3 Bft)
27.06.2017 14:48 20,2 C 57 % 1010,6 hPa 0,0 l/m 5,5 km/h (2 Bft) N 11 3 min 802 W/m 11,4 C 20,2 C 9,7 km/h (2 Bft)
27.06.2017 14:51 20,1 C 58 % 1010,6 hPa 0,0 l/m 4,2 km/h (1 Bft) N-NO 21 3 min 735 W/m 11,6 C 20,1 C 16,1 km/h (3 Bft)
27.06.2017 14:54 19,9 C 56 % 1010,6 hPa 0,0 l/m 7,3 km/h (2 Bft) N-NO 17 3 min 673 W/m 10,9 C 19,5 C 16,1 km/h (3 Bft)
27.06.2017 14:57 19,8 C 58 % 1010,5 hPa 0,0 l/m 4,0 km/h (1 Bft) N-NO 15 3 min 821 W/m 11,3 C 19,8 C 9,7 km/h (2 Bft)
27.06.2017 15:00 20,0 C 57 % 1010,5 hPa 0,0 l/m 5,9 km/h (2 Bft) NW 323 3 min 807 W/m 11,2 C 20,0 C 12,9 km/h (3 Bft)
27.06.2017 15:03 20,2 C 57 % 1010,4 hPa 0,0 l/m 5,5 km/h (2 Bft) N 360 3 min 782 W/m 11,4 C 20,2 C 14,5 km/h (3 Bft)
27.06.2017 15:06 20,2 C 57 % 1010,4 hPa 0,0 l/m 5,1 km/h (1 Bft) N 355 3 min 673 W/m 11,4 C 20,2 C 11,3 km/h (2 Bft)
27.06.2017 15:09 20,3 C 57 % 1010,4 hPa 0,0 l/m 5,1 km/h (1 Bft) N-NW 346 3 min 673 W/m 11,5 C 20,3 C 12,9 km/h (3 Bft)
27.06.2017 15:12 20,2 C 56 % 1010,4 hPa 0,0 l/m 7,4 km/h (2 Bft) N-NW 328 3 min 703 W/m 11,1 C 19,8 C 14,5 km/h (3 Bft)
27.06.2017 15:15 20,1 C 56 % 1010,4 hPa 0,0 l/m 5,3 km/h (1 Bft) N 355 3 min 768 W/m 11,0 C 20,1 C 14,5 km/h (3 Bft)
27.06.2017 15:18 19,8 C 58 % 1010,2 hPa 0,0 l/m 5,9 km/h (2 Bft) N-NW 346 3 min 680 W/m 11,3 C 19,8 C 11,3 km/h (2 Bft)
27.06.2017 15:21 20,0 C 59 % 1010,3 hPa 0,0 l/m 3,5 km/h (1 Bft) N-NO 26 3 min 624 W/m 11,7 C 20,0 C 11,3 km/h (2 Bft)
27.06.2017 15:24 20,0 C 58 % 1010,2 hPa 0,0 l/m 5,4 km/h (2 Bft) N 5 3 min 744 W/m 11,5 C 20,0 C 14,5 km/h (3 Bft)
27.06.2017 15:27 20,2 C 57 % 1010,2 hPa 0,0 l/m 9,5 km/h (2 Bft) N-NW 344 3 min 740 W/m 11,4 C 19,0 C 17,7 km/h (3 Bft)
27.06.2017 15:30 20,3 C 56 % 1010,2 hPa 0,0 l/m 6,0 km/h (2 Bft) N-NW 336 3 min 782 W/m 11,2 C 20,3 C 16,1 km/h (3 Bft)
27.06.2017 15:33 20,3 C 58 % 1010,1 hPa 0,0 l/m 4,8 km/h (1 Bft) N-NW 327 3 min 737 W/m 11,8 C 20,3 C 9,7 km/h (2 Bft)
27.06.2017 15:36 20,3 C 57 % 1010,1 hPa 0,0 l/m 6,8 km/h (2 Bft) N 355 3 min 726 W/m 11,5 C 20,1 C 20,9 km/h (4 Bft)
27.06.2017 15:39 20,3 C 60 % 1010,1 hPa 0,0 l/m 4,6 km/h (1 Bft) N-NW 340 3 min 712 W/m 12,3 C 20,3 C 14,5 km/h (3 Bft)
27.06.2017 15:42 20,3 C 58 % 1010,1 hPa 0,0 l/m 4,2 km/h (1 Bft) N 5 3 min 649 W/m 11,8 C 20,3 C 11,3 km/h (2 Bft)
27.06.2017 15:45 20,2 C 57 % 1010,1 hPa 0,0 l/m 6,4 km/h (2 Bft) N-NO 22 3 min 742 W/m 11,4 C 20,2 C 19,3 km/h (3 Bft)
27.06.2017 15:48 20,0 C 58 % 1010,1 hPa 0,0 l/m 4,5 km/h (1 Bft) W-NW 303 3 min 483 W/m 11,5 C 20,0 C 14,5 km/h (3 Bft)
27.06.2017 15:51 19,9 C 58 % 1010,1 hPa 0,0 l/m 8,6 km/h (2 Bft) N-NW 340 0 min 366 W/m 11,4 C 19,0 C 16,1 km/h (3 Bft)
27.06.2017 15:54 19,7 C 58 % 1010,1 hPa 0,0 l/m 8,2 km/h (2 Bft) N-NO 31 3 min 524 W/m 11,2 C 19,0 C 17,7 km/h (3 Bft)
27.06.2017 15:57 19,6 C 59 % 1010,0 hPa 0,0 l/m 7,8 km/h (2 Bft) N-NO 18 3 min 468 W/m 11,4 C 19,0 C 12,9 km/h (3 Bft)
27.06.2017 16:00 19,6 C 59 % 1010,0 hPa 0,0 l/m 4,9 km/h (1 Bft) NW 323 3 min 677 W/m 11,4 C 19,6 C 12,9 km/h (3 Bft)
27.06.2017 16:03 19,6 C 60 % 1010,0 hPa 0,0 l/m 5,2 km/h (1 Bft) NO 38 3 min 735 W/m 11,6 C 19,6 C 12,9 km/h (3 Bft)
27.06.2017 16:06 19,7 C 60 % 1010,0 hPa 0,0 l/m 6,2 km/h (2 Bft) N-NO 20 3 min 679 W/m 11,7 C 19,7 C 14,5 km/h (3 Bft)
27.06.2017 16:09 19,8 C 60 % 1010,0 hPa 0,0 l/m 4,7 km/h (1 Bft) N 5 3 min 733 W/m 11,8 C 19,8 C 12,9 km/h (3 Bft)
27.06.2017 16:12 20,3 C 58 % 1009,9 hPa 0,0 l/m 7,6 km/h (2 Bft) N-NW 340 3 min 626 W/m 11,8 C 19,8 C 19,3 km/h (3 Bft)
27.06.2017 16:15 20,2 C 58 % 1009,9 hPa 0,0 l/m 7,9 km/h (2 Bft) N-NO 22 3 min 605 W/m 11,7 C 19,6 C 14,5 km/h (3 Bft)
27.06.2017 16:18 20,3 C 59 % 1009,9 hPa 0,0 l/m 6,6 km/h (2 Bft) N 5 3 min 682 W/m 12,0 C 20,2 C 16,1 km/h (3 Bft)
27.06.2017 16:21 20,5 C 59 % 1009,9 hPa 0,0 l/m 7,7 km/h (2 Bft) N-NO 28 3 min 694 W/m 12,2 C 20,0 C 14,5 km/h (3 Bft)
27.06.2017 16:24 20,6 C 58 % 1009,8 hPa 0,0 l/m 5,3 km/h (1 Bft) N 355 3 min 671 W/m 12,0 C 20,6 C 9,7 km/h (2 Bft)
27.06.2017 16:27 20,5 C 58 % 1009,8 hPa 0,0 l/m 5,7 km/h (2 Bft) N-NW 348 3 min 619 W/m 11,9 C 20,5 C 12,9 km/h (3 Bft)
27.06.2017 16:30 20,5 C 57 % 1009,8 hPa 0,0 l/m 7,7 km/h (2 Bft) N 355 3 min 638 W/m 11,7 C 20,0 C 14,5 km/h (3 Bft)
27.06.2017 16:33 20,4 C 57 % 1009,7 hPa 0,0 l/m 6,9 km/h (2 Bft) W-SW 248 3 min 603 W/m 11,6 C 20,2 C 16,1 km/h (3 Bft)
27.06.2017 16:36 20,3 C 57 % 1009,6 hPa 0,0 l/m 6,7 km/h (2 Bft) NO 34 3 min 617 W/m 11,5 C 20,2 C 17,7 km/h (3 Bft)
27.06.2017 16:39 20,1 C 57 % 1009,6 hPa 0,0 l/m 6,0 km/h (2 Bft) NO 40 3 min 628 W/m 11,3 C 20,1 C 16,1 km/h (3 Bft)
27.06.2017 16:42 20,1 C 60 % 1009,6 hPa 0,0 l/m 5,8 km/h (2 Bft) W-NW 298 3 min 635 W/m 12,1 C 20,1 C 17,7 km/h (3 Bft)
27.06.2017 16:45 20,2 C 58 % 1009,5 hPa 0,0 l/m 7,8 km/h (2 Bft) N-NW 330 3 min 645 W/m 11,7 C 19,6 C 17,7 km/h (3 Bft)
27.06.2017 16:48 20,4 C 58 % 1009,5 hPa 0,0 l/m 5,8 km/h (2 Bft) N 10 3 min 626 W/m 11,9 C 20,4 C 14,5 km/h (3 Bft)
27.06.2017 16:51 20,5 C 59 % 1009,5 hPa 0,0 l/m 6,1 km/h (2 Bft) N-NO 29 3 min 631 W/m 12,2 C 20,5 C 11,3 km/h (2 Bft)
27.06.2017 16:54 20,6 C 57 % 1009,4 hPa 0,0 l/m 8,8 km/h (2 Bft) N-NW 346 3 min 596 W/m 11,8 C 19,7 C 17,7 km/h (3 Bft)
27.06.2017 16:57 20,3 C 57 % 1009,4 hPa 0,0 l/m 6,6 km/h (2 Bft) N 355 3 min 504 W/m 11,5 C 20,2 C 17,7 km/h (3 Bft)
27.06.2017 17:00 20,2 C 58 % 1009,3 hPa 0,0 l/m 9,5 km/h (2 Bft) W 277 3 min 592 W/m 11,7 C 19,0 C 16,1 km/h (3 Bft)
27.06.2017 17:03 20,4 C 59 % 1009,3 hPa 0,0 l/m 8,7 km/h (2 Bft) N-NW 345 3 min 577 W/m 12,1 C 19,5 C 17,7 km/h (3 Bft)
27.06.2017 17:06 20,2 C 59 % 1009,3 hPa 0,0 l/m 5,4 km/h (2 Bft) NW 325 3 min 554 W/m 11,9 C 20,2 C 11,3 km/h (2 Bft)
27.06.2017 17:09 20,1 C 59 % 1009,2 hPa 0,0 l/m 6,1 km/h (2 Bft) N 355 0 min 258 W/m 11,8 C 20,1 C 16,1 km/h (3 Bft)
27.06.2017 17:12 19,8 C 60 % 1009,2 hPa 0,0 l/m 5,8 km/h (2 Bft) NO 51 0 min 278 W/m 11,8 C 19,8 C 16,1 km/h (3 Bft)
27.06.2017 17:15 19,6 C 61 % 1009,1 hPa 0,0 l/m 5,4 km/h (2 Bft) N-NO 13 0 min 297 W/m 11,9 C 19,6 C 14,5 km/h (3 Bft)
27.06.2017 17:18 19,5 C 62 % 1009,1 hPa 0,0 l/m 5,3 km/h (1 Bft) N-NW 343 0 min 320 W/m 12,0 C 19,5 C 16,1 km/h (3 Bft)
27.06.2017 17:21 19,5 C 62 % 1009,0 hPa 0,0 l/m 6,1 km/h (2 Bft) N 350 0 min 278 W/m 12,0 C 19,5 C 12,9 km/h (3 Bft)
27.06.2017 17:24 19,6 C 61 % 1009,0 hPa 0,0 l/m 8,7 km/h (2 Bft) N 5 0 min 241 W/m 11,9 C 18,7 C 17,7 km/h (3 Bft)
27.06.2017 17:27 19,6 C 62 % 1008,9 hPa 0,0 l/m 5,9 km/h (2 Bft) N 5 0 min 202 W/m 12,1 C 19,6 C 12,9 km/h (3 Bft)
27.06.2017 17:30 19,3 C 63 % 1008,9 hPa 0,0 l/m 5,1 km/h (1 Bft) O-NO 65 0 min 181 W/m 12,1 C 19,3 C 12,9 km/h (3 Bft)
27.06.2017 17:33 18,9 C 63 % 1008,8 hPa 0,0 l/m 5,8 km/h (2 Bft) N 360 0 min 171 W/m 11,7 C 18,9 C 14,5 km/h (3 Bft)
27.06.2017 17:36 18,8 C 62 % 1008,8 hPa 0,0 l/m 6,3 km/h (2 Bft) NW 319 0 min 178 W/m 11,4 C 18,8 C 16,1 km/h (3 Bft)
27.06.2017 17:39 18,7 C 64 % 1008,7 hPa 0,0 l/m 6,7 km/h (2 Bft) NO 34 0 min 183 W/m 11,7 C 18,6 C 14,5 km/h (3 Bft)
27.06.2017 17:42 18,6 C 65 % 1008,6 hPa 0,0 l/m 5,7 km/h (2 Bft) W-NW 283 0 min 183 W/m 11,9 C 18,6 C 12,9 km/h (3 Bft)
27.06.2017 17:45 18,7 C 66 % 1008,5 hPa 0,0 l/m 4,5 km/h (1 Bft) N 9 0 min 218 W/m 12,2 C 18,7 C 14,5 km/h (3 Bft)
27.06.2017 17:48 18,9 C 66 % 1008,5 hPa 0,0 l/m 5,8 km/h (2 Bft) N-NW 343 0 min 223 W/m 12,4 C 18,9 C 11,3 km/h (2 Bft)
27.06.2017 17:51 19,2 C 66 % 1008,5 hPa 0,0 l/m 4,6 km/h (1 Bft) NW 321 0 min 260 W/m 12,7 C 19,2 C 14,5 km/h (3 Bft)
27.06.2017 17:54 19,2 C 64 % 1008,5 hPa 0,0 l/m 5,4 km/h (2 Bft) N 5 3 min 345 W/m 12,2 C 19,2 C 14,5 km/h (3 Bft)
27.06.2017 17:57 19,3 C 64 % 1008,5 hPa 0,0 l/m 5,4 km/h (2 Bft) NW 323 3 min 290 W/m 12,3 C 19,3 C 9,7 km/h (2 Bft)
27.06.2017 18:00 19,5 C 64 % 1008,3 hPa 0,0 l/m 6,6 km/h (2 Bft) N 11 3 min 385 W/m 12,5 C 19,4 C 12,9 km/h (3 Bft)
27.06.2017 18:03 19,4 C 64 % 1008,3 hPa 0,0 l/m 7,2 km/h (2 Bft) NO 49 3 min 288 W/m 12,4 C 19,1 C 14,5 km/h (3 Bft)
27.06.2017 18:06 19,3 C 64 % 1008,3 hPa 0,0 l/m 5,9 km/h (2 Bft) N-NW 328 3 min 288 W/m 12,3 C 19,3 C 20,9 km/h (4 Bft)
27.06.2017 18:09 19,3 C 64 % 1008,3 hPa 0,0 l/m 6,5 km/h (2 Bft) NW 324 0 min 264 W/m 12,3 C 19,3 C 14,5 km/h (3 Bft)
27.06.2017 18:12 19,2 C 65 % 1008,3 hPa 0,0 l/m 5,3 km/h (1 Bft) N-NW 342 0 min 216 W/m 12,5 C 19,2 C 9,7 km/h (2 Bft)
27.06.2017 18:15 19,1 C 65 % 1008,2 hPa 0,0 l/m 4,5 km/h (1 Bft) N-NO 21 3 min 295 W/m 12,4 C 19,1 C 14,5 km/h (3 Bft)
27.06.2017 18:18 19,1 C 65 % 1008,2 hPa 0,0 l/m 5,6 km/h (2 Bft) NO 40 3 min 278 W/m 12,4 C 19,1 C 11,3 km/h (2 Bft)
27.06.2017 18:21 19,2 C 65 % 1008,3 hPa 0,0 l/m 4,8 km/h (1 Bft) N-NW 333 3 min 258 W/m 12,5 C 19,2 C 12,9 km/h (3 Bft)
27.06.2017 18:24 19,3 C 66 % 1008,3 hPa 0,0 l/m 4,6 km/h (1 Bft) N-NW 347 3 min 308 W/m 12,8 C 19,3 C 11,3 km/h (2 Bft)
27.06.2017 18:27 19,3 C 66 % 1008,2 hPa 0,0 l/m 4,0 km/h (1 Bft) N-NW 330 3 min 283 W/m 12,8 C 19,3 C 11,3 km/h (2 Bft)
27.06.2017 18:30 19,3 C 66 % 1008,2 hPa 0,0 l/m 4,1 km/h (1 Bft) W 261 0 min 214 W/m 12,8 C 19,3 C 9,7 km/h (2 Bft)
27.06.2017 18:33 19,3 C 65 % 1008,2 hPa 0,0 l/m 5,4 km/h (2 Bft) NW 322 0 min 183 W/m 12,6 C 19,3 C 12,9 km/h (3 Bft)
27.06.2017 18:36 19,2 C 66 % 1008,2 hPa 0,0 l/m 3,7 km/h (1 Bft) N 9 0 min 209 W/m 12,7 C 19,2 C 12,9 km/h (3 Bft)
27.06.2017 18:39 19,2 C 67 % 1008,1 hPa 0,0 l/m 4,5 km/h (1 Bft) O 92 0 min 163 W/m 12,9 C 19,2 C 9,7 km/h (2 Bft)
27.06.2017 18:42 19,1 C 67 % 1008,0 hPa 0,0 l/m 3,0 km/h (1 Bft) N-NW 331 0 min 158 W/m 12,8 C 19,1 C 6,4 km/h (2 Bft)
27.06.2017 18:45 18,9 C 68 % 1008,0 hPa 0,0 l/m 3,7 km/h (1 Bft) N 5 0 min 158 W/m 12,9 C 18,9 C 9,7 km/h (2 Bft)
27.06.2017 18:48 18,9 C 68 % 1008,0 hPa 0,0 l/m 4,9 km/h (1 Bft) N-NO 24 0 min 169 W/m 12,9 C 18,9 C 14,5 km/h (3 Bft)
27.06.2017 18:51 18,9 C 67 % 1007,9 hPa 0,0 l/m 3,3 km/h (1 Bft) N 9 0 min 172 W/m 12,6 C 18,9 C 9,7 km/h (2 Bft)
27.06.2017 18:54 19,2 C 66 % 1008,0 hPa 0,0 l/m 3,3 km/h (1 Bft) NW 317 0 min 174 W/m 12,7 C 19,2 C 8,0 km/h (2 Bft)
27.06.2017 18:57 19,2 C 66 % 1007,9 hPa 0,0 l/m 3,2 km/h (1 Bft) O-SO 115 0 min 172 W/m 12,7 C 19,2 C 8,0 km/h (2 Bft)
27.06.2017 19:00 19,2 C 67 % 1007,9 hPa 0,0 l/m 2,5 km/h (1 Bft) N 350 0 min 153 W/m 12,9 C 19,2 C 9,7 km/h (2 Bft)
27.06.2017 19:03 19,3 C 67 % 1007,9 hPa 0,0 l/m 2,3 km/h (1 Bft) N 5 0 min 148 W/m 13,0 C 19,3 C 6,4 km/h (2 Bft)
27.06.2017 19:06 19,2 C 65 % 1007,8 hPa 0,0 l/m 2,3 km/h (1 Bft) O 86 0 min 148 W/m 12,5 C 19,2 C 4,8 km/h (1 Bft)
27.06.2017 19:09 19,2 C 61 % 1007,8 hPa 0,0 l/m 4,5 km/h (1 Bft) O 96 0 min 144 W/m 11,5 C 19,2 C 9,7 km/h (2 Bft)
27.06.2017 19:12 19,1 C 58 % 1007,9 hPa 0,0 l/m 4,4 km/h (1 Bft) NO 52 0 min 128 W/m 10,6 C 19,1 C 9,7 km/h (2 Bft)
27.06.2017 19:15 18,9 C 57 % 1007,8 hPa 0,0 l/m 4,5 km/h (1 Bft) O-NO 71 0 min 116 W/m 10,2 C 18,9 C 9,7 km/h (2 Bft)
27.06.2017 19:18 18,9 C 61 % 1007,6 hPa 0,0 l/m 3,5 km/h (1 Bft) N 351 0 min 100 W/m 11,2 C 18,9 C 12,9 km/h (3 Bft)
27.06.2017 19:21 18,8 C 59 % 1007,7 hPa 0,0 l/m 2,0 km/h (1 Bft) NO 37 0 min 91 W/m 10,6 C 18,8 C 4,8 km/h (1 Bft)
27.06.2017 19:24 18,8 C 60 % 1007,7 hPa 0,0 l/m 3,3 km/h (1 Bft) N-NO 33 0 min 79 W/m 10,9 C 18,8 C 9,7 km/h (2 Bft)
27.06.2017 19:27 18,7 C 61 % 1007,6 hPa 0,0 l/m 4,1 km/h (1 Bft) NO 51 0 min 70 W/m 11,0 C 18,7 C 9,7 km/h (2 Bft)
27.06.2017 19:30 18,6 C 60 % 1007,7 hPa 0,0 l/m 2,3 km/h (1 Bft) N-NO 17 0 min 63 W/m 10,7 C 18,6 C 8,0 km/h (2 Bft)
27.06.2017 19:33 18,5 C 63 % 1007,6 hPa 0,0 l/m 2,1 km/h (1 Bft) NO 44 0 min 60 W/m 11,3 C 18,5 C 4,8 km/h (1 Bft)
27.06.2017 19:36 18,3 C 64 % 1007,6 hPa 0,0 l/m 2,4 km/h (1 Bft) N-NO 13 0 min 56 W/m 11,4 C 18,3 C 6,4 km/h (2 Bft)
27.06.2017 19:39 18,3 C 64 % 1007,6 hPa 0,0 l/m 1,1 km/h (1 Bft) N 5 0 min 56 W/m 11,4 C 18,3 C 3,2 km/h (1 Bft)
27.06.2017 19:42 18,2 C 63 % 1007,5 hPa 0,0 l/m 2,3 km/h (1 Bft) N 5 0 min 58 W/m 11,0 C 18,2 C 6,4 km/h (2 Bft)
27.06.2017 19:45 18,1 C 66 % 1007,5 hPa 0,0 l/m 1,4 km/h (1 Bft) N-NO 14 0 min 58 W/m 11,6 C 18,1 C 4,8 km/h (1 Bft)
27.06.2017 19:48 18,1 C 65 % 1007,6 hPa 0,0 l/m 3,4 km/h (1 Bft) N-NO 27 0 min 60 W/m 11,4 C 18,1 C 8,0 km/h (2 Bft)
27.06.2017 19:51 18,1 C 64 % 1007,5 hPa 0,0 l/m 3,3 km/h (1 Bft) NO 49 0 min 58 W/m 11,2 C 18,1 C 8,0 km/h (2 Bft)
27.06.2017 19:54 18,2 C 64 % 1007,5 hPa 0,0 l/m 4,7 km/h (1 Bft) NO 45 0 min 54 W/m 11,3 C 18,2 C 11,3 km/h (2 Bft)
27.06.2017 19:57 18,2 C 63 % 1007,5 hPa 0,0 l/m 2,3 km/h (1 Bft) N 5 0 min 51 W/m 11,0 C 18,2 C 4,8 km/h (1 Bft)
27.06.2017 20:00 18,2 C 64 % 1007,5 hPa 0,0 l/m 2,3 km/h (1 Bft) N-NW 336 0 min 47 W/m 11,3 C 18,2 C 4,8 km/h (1 Bft)
27.06.2017 20:03 18,2 C 64 % 1007,5 hPa 0,0 l/m 2,7 km/h (1 Bft) NO 44 0 min 46 W/m 11,3 C 18,2 C 4,8 km/h (1 Bft)
27.06.2017 20:06 18,3 C 65 % 1007,5 hPa 0,0 l/m 1,4 km/h (1 Bft) N 5 0 min 44 W/m 11,6 C 18,3 C 4,8 km/h (1 Bft)
27.06.2017 20:09 18,3 C 65 % 1007,5 hPa 0,0 l/m 3,6 km/h (1 Bft) N 5 0 min 42 W/m 11,6 C 18,3 C 11,3 km/h (2 Bft)
27.06.2017 20:12 18,3 C 65 % 1007,4 hPa 0,0 l/m 3,9 km/h (1 Bft) O-NO 72 0 min 39 W/m 11,6 C 18,3 C 9,7 km/h (2 Bft)
27.06.2017 20:15 18,2 C 66 % 1007,4 hPa 0,0 l/m 1,2 km/h (1 Bft) N-NW 335 0 min 37 W/m 11,7 C 18,2 C 3,2 km/h (1 Bft)
27.06.2017 20:18 18,2 C 65 % 1007,4 hPa 0,0 l/m 0,9 km/h (0 Bft) N-NW 336 0 min 35 W/m 11,5 C 18,2 C 3,2 km/h (1 Bft)
27.06.2017 20:21 18,2 C 67 % 1007,3 hPa 0,0 l/m 2,9 km/h (1 Bft) O-NO 57 0 min 35 W/m 12,0 C 18,2 C 6,4 km/h (2 Bft)
27.06.2017 20:24 18,1 C 67 % 1007,3 hPa 0,0 l/m 1,4 km/h (1 Bft) NO 53 0 min 33 W/m 11,9 C 18,1 C 3,2 km/h (1 Bft)
27.06.2017 20:27 18,1 C 68 % 1007,2 hPa 0,0 l/m 1,5 km/h (1 Bft) N-NO 19 0 min 33 W/m 12,1 C 18,1 C 4,8 km/h (1 Bft)
27.06.2017 20:30 18,1 C 67 % 1007,2 hPa 0,0 l/m 3,9 km/h (1 Bft) N-NO 30 0 min 32 W/m 11,9 C 18,1 C 6,4 km/h (2 Bft)
27.06.2017 20:33 18,1 C 67 % 1007,2 hPa 0,0 l/m 2,1 km/h (1 Bft) NO 34 0 min 30 W/m 11,9 C 18,1 C 4,8 km/h (1 Bft)
27.06.2017 20:36 18,1 C 67 % 1007,2 hPa 0,0 l/m 1,8 km/h (1 Bft) O 92 0 min 30 W/m 11,9 C 18,1 C 3,2 km/h (1 Bft)
27.06.2017 20:39 18,1 C 67 % 1007,2 hPa 0,0 l/m 2,6 km/h (1 Bft) NO 46 0 min 28 W/m 11,9 C 18,1 C 8,0 km/h (2 Bft)
27.06.2017 20:42 18,0 C 67 % 1007,2 hPa 0,0 l/m 3,6 km/h (1 Bft) N-NO 22 0 min 26 W/m 11,8 C 18,0 C 6,4 km/h (2 Bft)
27.06.2017 20:45 18,0 C 68 % 1007,1 hPa 0,0 l/m 2,5 km/h (1 Bft) O-NO 74 0 min 23 W/m 12,0 C 18,0 C 9,7 km/h (2 Bft)
27.06.2017 20:48 17,9 C 68 % 1007,1 hPa 0,0 l/m 3,3 km/h (1 Bft) NO 40 0 min 23 W/m 11,9 C 17,9 C 9,7 km/h (2 Bft)
27.06.2017 20:51 17,9 C 68 % 1007,1 hPa 0,0 l/m 2,5 km/h (1 Bft) NO 42 0 min 21 W/m 11,9 C 17,9 C 6,4 km/h (2 Bft)
27.06.2017 20:54 18,0 C 68 % 1007,1 hPa 0,0 l/m 1,8 km/h (1 Bft) O-NO 63 0 min 19 W/m 12,0 C 18,0 C 11,3 km/h (2 Bft)
27.06.2017 20:57 17,9 C 69 % 1007,1 hPa 0,0 l/m 3,0 km/h (1 Bft) O-NO 63 0 min 18 W/m 12,1 C 17,9 C 8,0 km/h (2 Bft)
27.06.2017 21:00 18,0 C 69 % 1007,1 hPa 0,0 l/m 2,6 km/h (1 Bft) N-NO 22 0 min 16 W/m 12,2 C 18,0 C 6,4 km/h (2 Bft)
27.06.2017 21:03 17,9 C 69 % 1007,1 hPa 0,0 l/m 3,0 km/h (1 Bft) N-NW 334 0 min 14 W/m 12,1 C 17,9 C 4,8 km/h (1 Bft)
27.06.2017 21:06 17,9 C 69 % 1007,1 hPa 0,0 l/m 1,9 km/h (1 Bft) N-NO 24 0 min 12 W/m 12,1 C 17,9 C 6,4 km/h (2 Bft)
27.06.2017 21:09 17,8 C 69 % 1007,1 hPa 0,0 l/m 2,5 km/h (1 Bft) NW 313 0 min 12 W/m 12,0 C 17,8 C 6,4 km/h (2 Bft)
27.06.2017 21:12 17,8 C 70 % 1007,0 hPa 0,0 l/m 2,3 km/h (1 Bft) NO 46 0 min 12 W/m 12,3 C 17,8 C 6,4 km/h (2 Bft)
27.06.2017 21:15 17,8 C 69 % 1007,0 hPa 0,0 l/m 3,3 km/h (1 Bft) NO 42 0 min 11 W/m 12,0 C 17,8 C 8,0 km/h (2 Bft)
27.06.2017 21:18 17,8 C 68 % 1007,0 hPa 0,0 l/m 3,1 km/h (1 Bft) O 89 0 min 11 W/m 11,8 C 17,8 C 12,9 km/h (3 Bft)
27.06.2017 21:21 17,8 C 68 % 1007,0 hPa 0,0 l/m 2,6 km/h (1 Bft) N-NO 13 0 min 9 W/m 11,8 C 17,8 C 6,4 km/h (2 Bft)
27.06.2017 21:24 17,8 C 69 % 1007,0 hPa 0,0 l/m 2,4 km/h (1 Bft) S 170 0 min 9 W/m 12,0 C 17,8 C 9,7 km/h (2 Bft)
27.06.2017 21:27 17,8 C 69 % 1007,0 hPa 0,0 l/m 2,5 km/h (1 Bft) N-NO 33 0 min 7 W/m 12,0 C 17,8 C 9,7 km/h (2 Bft)
27.06.2017 21:30 17,7 C 70 % 1007,0 hPa 0,0 l/m 3,2 km/h (1 Bft) NW 309 0 min 5 W/m 12,2 C 17,7 C 8,0 km/h (2 Bft)
27.06.2017 21:33 17,7 C 72 % 1007,0 hPa 0,0 l/m 3,8 km/h (1 Bft) NO 53 0 min 5 W/m 12,6 C 17,7 C 8,0 km/h (2 Bft)
27.06.2017 21:36 17,8 C 73 % 1007,0 hPa 0,0 l/m 4,5 km/h (1 Bft) W-NW 301 0 min 5 W/m 12,9 C 17,8 C 14,5 km/h (3 Bft)
27.06.2017 21:39 17,8 C 73 % 1007,0 hPa 0,0 l/m 3,5 km/h (1 Bft) NO 55 0 min 5 W/m 12,9 C 17,8 C 9,7 km/h (2 Bft)
27.06.2017 21:42 17,7 C 73 % 1007,0 hPa 0,0 l/m 2,7 km/h (1 Bft) W-NW 285 0 min 5 W/m 12,8 C 17,7 C 6,4 km/h (2 Bft)
27.06.2017 21:45 17,7 C 74 % 1007,1 hPa 0,0 l/m 2,4 km/h (1 Bft) SW 214 0 min 0 W/m 13,0 C 17,7 C 4,8 km/h (1 Bft)
27.06.2017 21:48 17,6 C 74 % 1007,0 hPa 0,0 l/m 3,5 km/h (1 Bft) N 360 0 min 0 W/m 12,9 C 17,6 C 14,5 km/h (3 Bft)
27.06.2017 21:51 17,5 C 74 % 1007,0 hPa 0,0 l/m 2,8 km/h (1 Bft) N-NW 329 0 min 0 W/m 12,8 C 17,5 C 9,7 km/h (2 Bft)
27.06.2017 21:54 17,4 C 75 % 1007,0 hPa 0,0 l/m 3,2 km/h (1 Bft) N 355 0 min 0 W/m 12,9 C 17,4 C 6,4 km/h (2 Bft)
27.06.2017 21:57 17,4 C 74 % 1007,0 hPa 0,0 l/m 3,1 km/h (1 Bft) N 5 0 min 0 W/m 12,7 C 17,4 C 8,0 km/h (2 Bft)
27.06.2017 22:00 17,3 C 75 % 1006,9 hPa 0,0 l/m 3,5 km/h (1 Bft) NW 317 0 min 0 W/m 12,8 C 17,3 C 8,0 km/h (2 Bft)
27.06.2017 22:03 17,3 C 75 % 1006,9 hPa 0,0 l/m 2,3 km/h (1 Bft) N 5 0 min 0 W/m 12,8 C 17,3 C 4,8 km/h (1 Bft)
27.06.2017 22:06 17,2 C 75 % 1006,9 hPa 0,0 l/m 3,1 km/h (1 Bft) N-NW 348 0 min 0 W/m 12,7 C 17,2 C 6,4 km/h (2 Bft)
27.06.2017 22:09 17,2 C 75 % 1006,9 hPa 0,0 l/m 2,6 km/h (1 Bft) SW 217 0 min 0 W/m 12,7 C 17,2 C 4,8 km/h (1 Bft)
27.06.2017 22:12 17,1 C 75 % 1006,9 hPa 0,0 l/m 2,0 km/h (1 Bft) O-NO 77 0 min 0 W/m 12,6 C 17,1 C 8,0 km/h (2 Bft)
27.06.2017 22:15 17,1 C 75 % 1007,0 hPa 0,0 l/m 3,7 km/h (1 Bft) N 5 0 min 0 W/m 12,6 C 17,1 C 9,7 km/h (2 Bft)
27.06.2017 22:18 17,1 C 75 % 1007,0 hPa 0,0 l/m 3,0 km/h (1 Bft) O 84 0 min 0 W/m 12,6 C 17,1 C 8,0 km/h (2 Bft)
27.06.2017 22:21 17,0 C 75 % 1006,9 hPa 0,0 l/m 1,4 km/h (1 Bft) N-NO 20 0 min 0 W/m 12,5 C 17,0 C 4,8 km/h (1 Bft)
27.06.2017 22:24 17,0 C 76 % 1006,9 hPa 0,0 l/m 4,5 km/h (1 Bft) N-NW 335 0 min 0 W/m 12,7 C 17,0 C 9,7 km/h (2 Bft)
27.06.2017 22:27 16,9 C 76 % 1006,9 hPa 0,0 l/m 2,3 km/h (1 Bft) S-SO 156 0 min 0 W/m 12,6 C 16,9 C 6,4 km/h (2 Bft)
27.06.2017 22:30 16,9 C 76 % 1006,9 hPa 0,0 l/m 3,3 km/h (1 Bft) N-NO 26 0 min 0 W/m 12,6 C 16,9 C 8,0 km/h (2 Bft)
27.06.2017 22:33 16,9 C 76 % 1006,9 hPa 0,0 l/m 3,4 km/h (1 Bft) N-NO 13 0 min 0 W/m 12,6 C 16,9 C 11,3 km/h (2 Bft)
27.06.2017 22:36 16,9 C 76 % 1006,9 hPa 0,0 l/m 2,6 km/h (1 Bft) NO 51 0 min 0 W/m 12,6 C 16,9 C 8,0 km/h (2 Bft)
27.06.2017 22:39 16,9 C 76 % 1006,8 hPa 0,0 l/m 3,2 km/h (1 Bft) NO 46 0 min 0 W/m 12,6 C 16,9 C 6,4 km/h (2 Bft)
27.06.2017 22:42 16,8 C 76 % 1006,8 hPa 0,0 l/m 3,4 km/h (1 Bft) O-NO 73 0 min 0 W/m 12,5 C 16,8 C 6,4 km/h (2 Bft)
27.06.2017 22:45 16,8 C 77 % 1006,8 hPa 0,0 l/m 2,8 km/h (1 Bft) N-NO 31 0 min 0 W/m 12,7 C 16,8 C 8,0 km/h (2 Bft)
27.06.2017 22:48 16,8 C 77 % 1006,7 hPa 0,0 l/m 3,7 km/h (1 Bft) N-NO 27 0 min 0 W/m 12,7 C 16,8 C 9,7 km/h (2 Bft)
27.06.2017 22:51 16,7 C 77 % 1006,8 hPa 0,0 l/m 2,6 km/h (1 Bft) N-NO 30 0 min 0 W/m 12,6 C 16,7 C 4,8 km/h (1 Bft)
27.06.2017 22:54 16,7 C 78 % 1006,7 hPa 0,0 l/m 2,1 km/h (1 Bft) N 355 0 min 0 W/m 12,8 C 16,7 C 4,8 km/h (1 Bft)
27.06.2017 22:57 16,7 C 78 % 1006,7 hPa 0,0 l/m 6,3 km/h (2 Bft) NO 53 0 min 0 W/m 12,8 C 16,7 C 14,5 km/h (3 Bft)
27.06.2017 23:00 16,7 C 77 % 1006,7 hPa 0,0 l/m 3,9 km/h (1 Bft) O-NO 65 0 min 0 W/m 12,6 C 16,7 C 9,7 km/h (2 Bft)
27.06.2017 23:03 16,7 C 77 % 1006,7 hPa 0,0 l/m 2,6 km/h (1 Bft) O 87 0 min 0 W/m 12,6 C 16,7 C 6,4 km/h (2 Bft)
27.06.2017 23:06 16,7 C 77 % 1006,7 hPa 0,0 l/m 4,1 km/h (1 Bft) O-NO 75 0 min 0 W/m 12,6 C 16,7 C 12,9 km/h (3 Bft)
27.06.2017 23:09 16,7 C 77 % 1006,8 hPa 0,0 l/m 5,9 km/h (2 Bft) NO 53 0 min 0 W/m 12,6 C 16,7 C 12,9 km/h (3 Bft)
27.06.2017 23:12 16,7 C 77 % 1006,7 hPa 0,0 l/m 4,2 km/h (1 Bft) NW 319 0 min 0 W/m 12,6 C 16,7 C 11,3 km/h (2 Bft)
27.06.2017 23:15 16,7 C 78 % 1006,7 hPa 0,0 l/m 3,6 km/h (1 Bft) O 80 0 min 0 W/m 12,8 C 16,7 C 14,5 km/h (3 Bft)
27.06.2017 23:18 16,7 C 78 % 1006,7 hPa 0,0 l/m 6,2 km/h (2 Bft) SO 136 0 min 0 W/m 12,8 C 16,7 C 12,9 km/h (3 Bft)
27.06.2017 23:21 16,7 C 78 % 1006,7 hPa 0,0 l/m 5,5 km/h (2 Bft) O 84 0 min 0 W/m 12,8 C 16,7 C 17,7 km/h (3 Bft)
27.06.2017 23:24 16,7 C 78 % 1006,6 hPa 0,0 l/m 3,8 km/h (1 Bft) N-NO 27 0 min 0 W/m 12,8 C 16,7 C 9,7 km/h (2 Bft)
27.06.2017 23:27 16,7 C 79 % 1006,7 hPa 0,0 l/m 3,0 km/h (1 Bft) NO 47 0 min 0 W/m 13,0 C 16,7 C 14,5 km/h (3 Bft)
27.06.2017 23:30 16,7 C 79 % 1006,6 hPa 0,0 l/m 5,1 km/h (1 Bft) NO 54 0 min 0 W/m 13,0 C 16,7 C 12,9 km/h (3 Bft)
27.06.2017 23:33 16,6 C 79 % 1006,5 hPa 0,0 l/m 4,4 km/h (1 Bft) S 173 0 min 0 W/m 12,9 C 16,6 C 11,3 km/h (2 Bft)
27.06.2017 23:36 16,6 C 79 % 1006,5 hPa 0,0 l/m 5,1 km/h (1 Bft) O 80 0 min 0 W/m 12,9 C 16,6 C 17,7 km/h (3 Bft)
27.06.2017 23:39 16,6 C 79 % 1006,5 hPa 0,0 l/m 5,6 km/h (2 Bft) O-NO 70 0 min 0 W/m 12,9 C 16,6 C 16,1 km/h (3 Bft)
27.06.2017 23:42 16,6 C 79 % 1006,4 hPa 0,0 l/m 4,0 km/h (1 Bft) N-NO 31 0 min 0 W/m 12,9 C 16,6 C 9,7 km/h (2 Bft)
27.06.2017 23:45 16,6 C 79 % 1006,4 hPa 0,0 l/m 4,1 km/h (1 Bft) N-NO 13 0 min 0 W/m 12,9 C 16,6 C 12,9 km/h (3 Bft)
27.06.2017 23:48 16,6 C 80 % 1006,4 hPa 0,0 l/m 4,0 km/h (1 Bft) O 79 0 min 0 W/m 13,1 C 16,6 C 11,3 km/h (2 Bft)
27.06.2017 23:51 16,6 C 81 % 1006,4 hPa 0,0 l/m 3,2 km/h (1 Bft) O-NO 68 0 min 0 W/m 13,3 C 16,6 C 8,0 km/h (2 Bft)
27.06.2017 23:54 16,5 C 81 % 1006,4 hPa 0,0 l/m 4,3 km/h (1 Bft) N 5 0 min 0 W/m 13,2 C 16,5 C 12,9 km/h (3 Bft)
27.06.2017 23:57 16,4 C 82 % 1006,3 hPa 0,0 l/m 5,2 km/h (1 Bft) O-NO 74 0 min 0 W/m 13,3 C 16,4 C 9,7 km/h (2 Bft)
_ Min-Zeit 04:51 14:54 23:57 - 07:51 - - - - 03:00 04:51 07:51
Minimum _ 13,3 C 56 % 1006,3 hPa - 0,0 km/h (0 Bft) - - - - 8,5 C 13,3 C 0,0 km/h (0 Bft)
_ Max-Zeit 16:24 23:57 00:21 00:00 15:27 - - 09:12 12:30 23:51 16:24 15:36
Maximum _ 20,7 C 82 % 1013,0 hPa 0,0 l/m 9,5 km/h
N-NW (2 Bft)
- - 3 min 925 W/m 13,3 C 20,6 C 20,9 km/h
N-NW (4 Bft)
Durchschnitt _ 16,5 C 70 % 1010,6 hPa #0,0 l/m 3,8 km/h (1 Bft) N - #5:42 h 320 W/m 10,9 C 16,5 C 9,2 km/h (2 Bft)
2017 Cux-Wetter.de -Die Nutzung der Wetterdaten nur mit ausdrcklicher Genehmigung